BOL2L SLVR-KSFO

Flight info

Callsign BOL2L
Flight time 10h 1m
Altitude 38000
Route PAKES1 PAKES TINPO TEMOR OSUBU UT234 OAS ESV UL318 IZT UJ47 PBC UJ33 SLM ZCL UT10 PPE UJ7 MXL CZQ
Aircraft DC10/H-V/N

Departure

Time 2026-04-11 03:20
Airport Viru Viru International Airport (SLVR)

Arrival

Time 2026-04-11 13:22
Airport San Francisco International Airport (KSFO)
Time Latitude Longitude Altitude Speed Heading
2026-04-11 02:15 -17.65261 -63.13510 1240 ft 0 kts 272°
2026-04-11 03:07 -17.65261 -63.13501 1240 ft 2 kts 272°
2026-04-11 03:07 -17.65261 -63.13495 1240 ft 3 kts 272°
2026-04-11 03:07 -17.65262 -63.13476 1240 ft 3 kts 272°
2026-04-11 03:08 -17.65263 -63.13433 1240 ft 2 kts 272°
2026-04-11 03:08 -17.65263 -63.13421 1240 ft 4 kts 244°
2026-04-11 03:08 -17.65236 -63.13379 1240 ft 10 kts 235°
2026-04-11 03:09 -17.65188 -63.13313 1240 ft 10 kts 198°
2026-04-11 03:09 -17.65156 -63.13315 1240 ft 0 kts 144°
2026-04-11 03:14 -17.65159 -63.13313 1240 ft 1 kts 147°
2026-04-11 03:14 -17.65179 -63.13300 1240 ft 6 kts 149°
2026-04-11 03:14 -17.65224 -63.13272 1240 ft 9 kts 149°
2026-04-11 03:14 -17.65280 -63.13236 1240 ft 10 kts 148°
2026-04-11 03:15 -17.65342 -63.13194 1240 ft 11 kts 148°
2026-04-11 03:15 -17.65408 -63.13151 1240 ft 10 kts 148°
2026-04-11 03:15 -17.65436 -63.13132 1240 ft 9 kts 148°
2026-04-11 03:15 -17.65484 -63.13100 1240 ft 8 kts 148°
2026-04-11 03:16 -17.65541 -63.13063 1240 ft 12 kts 148°
2026-04-11 03:16 -17.65621 -63.13010 1240 ft 15 kts 148°
2026-04-11 03:16 -17.65722 -63.12943 1240 ft 19 kts 148°
2026-04-11 03:16 -17.65832 -63.12868 1240 ft 17 kts 144°
2026-04-11 03:17 -17.65883 -63.12795 1240 ft 9 kts 88°
2026-04-11 03:17 -17.65854 -63.12737 1240 ft 9 kts 54°
2026-04-11 03:17 -17.65813 -63.12684 1240 ft 9 kts 34°
2026-04-11 03:17 -17.65753 -63.12686 1240 ft 9 kts 336°
2026-04-11 03:18 -17.65732 -63.12698 1240 ft 6 kts 329°
2026-04-11 03:18 -17.65729 -63.12700 1240 ft 6 kts 329°
2026-04-11 03:19 -17.65725 -63.12703 1240 ft 0 kts 329°
2026-04-11 03:19 -17.65686 -63.12728 1240 ft 30 kts 329°
2026-04-11 03:19 -17.65463 -63.12874 1240 ft 83 kts 327°
2026-04-11 03:19 -17.64472 -63.13537 1240 ft 165 kts 327°
2026-04-11 03:20 -17.63384 -63.14261 1321 ft 197 kts 327°
2026-04-11 03:20 -17.62597 -63.14785 1579 ft 204 kts 327°
2026-04-11 03:20 -17.61332 -63.15626 2136 ft 224 kts 327°
2026-04-11 03:20 -17.59982 -63.16525 2880 ft 233 kts 327°
2026-04-11 03:21 -17.58577 -63.17459 3526 ft 245 kts 327°
2026-04-11 03:21 -17.57095 -63.18440 4170 ft 256 kts 328°
2026-04-11 03:21 -17.55558 -63.19424 4806 ft 265 kts 328°
2026-04-11 03:21 -17.53969 -63.20476 5452 ft 272 kts 327°
2026-04-11 03:22 -17.52344 -63.21554 6092 ft 276 kts 326°
2026-04-11 03:22 -17.50732 -63.22616 6709 ft 276 kts 324°
2026-04-11 03:22 -17.49095 -63.23685 7336 ft 277 kts 324°
2026-04-11 03:22 -17.47435 -63.24733 7964 ft 278 kts 326°
2026-04-11 03:23 -17.46082 -63.25589 8475 ft 279 kts 325°
2026-04-11 03:23 -17.45168 -63.26176 8820 ft 279 kts 325°
2026-04-11 03:23 -17.43517 -63.27240 9439 ft 281 kts 324°
2026-04-11 03:23 -17.41819 -63.28336 10043 ft 285 kts 325°
2026-04-11 03:24 -17.40127 -63.29425 10667 ft 288 kts 325°
2026-04-11 03:24 -17.38418 -63.30521 11291 ft 290 kts 325°
2026-04-11 03:24 -17.36672 -63.31637 11923 ft 292 kts 325°
2026-04-11 03:24 -17.34928 -63.32749 12551 ft 293 kts 325°
2026-04-11 03:25 -17.33174 -63.33866 13084 ft 300 kts 325°
2026-04-11 03:25 -17.31375 -63.35012 13588 ft 307 kts 325°
2026-04-11 03:25 -17.29518 -63.36192 14096 ft 312 kts 325°
2026-04-11 03:25 -17.27653 -63.37375 14598 ft 314 kts 325°
2026-04-11 03:26 -17.25803 -63.38547 15093 ft 314 kts 325°
2026-04-11 03:26 -17.23922 -63.39737 15595 ft 315 kts 325°
2026-04-11 03:26 -17.22724 -63.40495 15914 ft 316 kts 325°
2026-04-11 03:26 -17.20862 -63.41672 16409 ft 317 kts 325°
2026-04-11 03:27 -17.18971 -63.42868 16910 ft 318 kts 325°
2026-04-11 03:27 -17.18256 -63.43319 17099 ft 318 kts 325°
2026-04-11 03:27 -17.16375 -63.44509 17595 ft 319 kts 325°
2026-04-11 03:27 -17.14467 -63.45714 18091 ft 321 kts 325°
2026-04-11 03:28 -17.12541 -63.46932 18498 ft 325 kts 325°
2026-04-11 03:28 -17.10588 -63.48167 18880 ft 329 kts 325°
2026-04-11 03:28 -17.08616 -63.49415 19259 ft 333 kts 325°
2026-04-11 03:28 -17.06619 -63.50677 19637 ft 336 kts 325°
2026-04-11 03:29 -17.04627 -63.51935 20010 ft 339 kts 325°
2026-04-11 03:29 -17.02598 -63.53215 20354 ft 343 kts 325°
2026-04-11 03:29 -17.01177 -63.54113 20542 ft 347 kts 325°
2026-04-11 03:29 -16.99084 -63.55435 20800 ft 352 kts 325°
2026-04-11 03:30 -16.96997 -63.56752 21051 ft 356 kts 325°
2026-04-11 03:30 -16.94861 -63.58099 21305 ft 358 kts 326°
2026-04-11 03:30 -16.94037 -63.58618 21402 ft 358 kts 326°
2026-04-11 03:30 -16.91938 -63.59940 21648 ft 359 kts 326°
2026-04-11 03:31 -16.89778 -63.61299 21901 ft 361 kts 326°
2026-04-11 03:31 -16.87650 -63.62639 22149 ft 362 kts 326°
2026-04-11 03:31 -16.85479 -63.64006 22401 ft 363 kts 326°
2026-04-11 03:31 -16.83302 -63.65375 22653 ft 364 kts 326°
2026-04-11 03:32 -16.81130 -63.66742 22903 ft 366 kts 326°
2026-04-11 03:32 -16.78942 -63.68119 23154 ft 367 kts 326°
2026-04-11 03:32 -16.77472 -63.69044 23323 ft 368 kts 326°
2026-04-11 03:32 -16.75296 -63.70412 23571 ft 370 kts 326°
2026-04-11 03:33 -16.74226 -63.71085 23693 ft 370 kts 326°
2026-04-11 03:33 -16.71999 -63.72485 23945 ft 372 kts 326°
2026-04-11 03:33 -16.69777 -63.73882 24197 ft 373 kts 326°
2026-04-11 03:33 -16.67568 -63.75270 24445 ft 375 kts 326°
2026-04-11 03:34 -16.65324 -63.76681 24697 ft 376 kts 326°
2026-04-11 03:34 -16.64906 -63.76943 24744 ft 376 kts 326°
2026-04-11 03:34 -16.63022 -63.78126 24954 ft 378 kts 326°
2026-04-11 03:34 -16.60763 -63.79546 25205 ft 380 kts 326°
2026-04-11 03:35 -16.58483 -63.80977 25458 ft 383 kts 326°
2026-04-11 03:35 -16.56210 -63.82404 25708 ft 386 kts 326°
2026-04-11 03:35 -16.53901 -63.83854 25960 ft 389 kts 326°
2026-04-11 03:35 -16.51571 -63.85338 26213 ft 391 kts 324°
2026-04-11 03:36 -16.49387 -63.86978 26463 ft 392 kts 319°
2026-04-11 03:36 -16.47265 -63.88792 26718 ft 393 kts 317°
2026-04-11 03:36 -16.45198 -63.90689 26973 ft 394 kts 315°
2026-04-11 03:36 -16.43195 -63.92599 27222 ft 396 kts 314°
2026-04-11 03:37 -16.41177 -63.94566 27473 ft 397 kts 314°
2026-04-11 03:37 -16.39166 -63.96549 27724 ft 398 kts 314°
2026-04-11 03:37 -16.37181 -63.98519 27972 ft 399 kts 314°
2026-04-11 03:37 -16.35169 -64.00521 28223 ft 399 kts 314°
2026-04-11 03:38 -16.33148 -64.02536 28475 ft 400 kts 314°
2026-04-11 03:38 -16.31126 -64.04553 28726 ft 400 kts 314°
2026-04-11 03:38 -16.29112 -64.06562 28977 ft 401 kts 314°
2026-04-11 03:38 -16.27119 -64.08550 29193 ft 402 kts 314°
2026-04-11 03:39 -16.25083 -64.10581 29344 ft 405 kts 314°
2026-04-11 03:39 -16.23035 -64.12625 29475 ft 409 kts 314°
2026-04-11 03:39 -16.20997 -64.14657 29602 ft 413 kts 314°
2026-04-11 03:39 -16.18911 -64.16737 29730 ft 417 kts 314°
2026-04-11 03:40 -16.16780 -64.18861 29860 ft 422 kts 314°
2026-04-11 03:40 -16.14661 -64.20972 29987 ft 427 kts 314°
2026-04-11 03:40 -16.12494 -64.23130 30116 ft 433 kts 314°
2026-04-11 03:40 -16.10324 -64.25291 30243 ft 439 kts 314°
2026-04-11 03:41 -16.08091 -64.27514 30373 ft 445 kts 314°
2026-04-11 03:41 -16.05828 -64.29765 30502 ft 452 kts 314°
2026-04-11 03:41 -16.03562 -64.32019 30630 ft 459 kts 314°
2026-04-11 03:41 -16.01223 -64.34344 30759 ft 465 kts 314°
2026-04-11 03:42 -15.98875 -64.36676 30886 ft 470 kts 314°
2026-04-11 03:42 -15.96496 -64.39039 31014 ft 474 kts 314°
2026-04-11 03:42 -15.94128 -64.41388 31139 ft 477 kts 314°
2026-04-11 03:42 -15.91720 -64.43776 31265 ft 480 kts 314°
2026-04-11 03:43 -15.89294 -64.46180 31392 ft 482 kts 314°
2026-04-11 03:43 -15.86861 -64.48591 31518 ft 483 kts 314°
2026-04-11 03:43 -15.84448 -64.50980 31642 ft 484 kts 314°
2026-04-11 03:43 -15.82012 -64.53391 31767 ft 485 kts 314°
2026-04-11 03:44 -15.79557 -64.55821 31893 ft 485 kts 314°
2026-04-11 03:44 -15.77108 -64.58244 32018 ft 485 kts 314°
2026-04-11 03:44 -15.74660 -64.60664 32143 ft 485 kts 314°
2026-04-11 03:44 -15.72231 -64.63066 32267 ft 485 kts 314°
2026-04-11 03:45 -15.69777 -64.65490 32393 ft 485 kts 314°
2026-04-11 03:45 -15.67338 -64.67900 32517 ft 485 kts 314°
2026-04-11 03:45 -15.64890 -64.70318 32642 ft 484 kts 314°
2026-04-11 03:45 -15.62449 -64.72728 32767 ft 484 kts 314°
2026-04-11 03:46 -15.60038 -64.75108 32890 ft 484 kts 314°
2026-04-11 03:46 -15.57599 -64.77515 33015 ft 483 kts 314°
2026-04-11 03:46 -15.55156 -64.79925 33140 ft 483 kts 314°
2026-04-11 03:46 -15.52724 -64.82323 33265 ft 482 kts 314°
2026-04-11 03:47 -15.50292 -64.84721 33390 ft 482 kts 314°
2026-04-11 03:47 -15.47862 -64.87117 33514 ft 481 kts 314°
2026-04-11 03:47 -15.45429 -64.89514 33639 ft 481 kts 314°
2026-04-11 03:47 -15.43033 -64.91874 33763 ft 480 kts 314°
2026-04-11 03:48 -15.40599 -64.94271 33888 ft 480 kts 314°
2026-04-11 03:48 -15.38198 -64.96635 33974 ft 480 kts 314°
2026-04-11 03:48 -15.33331 -65.01425 34001 ft 483 kts 314°
2026-04-11 03:49 -15.28448 -65.06228 34000 ft 485 kts 314°
2026-04-11 03:49 -15.23543 -65.11049 34000 ft 486 kts 314°
2026-04-11 03:50 -15.18655 -65.15849 34000 ft 486 kts 314°
2026-04-11 03:50 -15.13729 -65.20683 34000 ft 486 kts 314°
2026-04-11 03:51 -15.08812 -65.25504 34000 ft 486 kts 314°
2026-04-11 03:51 -15.07469 -65.26821 34000 ft 486 kts 314°
2026-04-11 03:52 -15.05932 -65.28333 34002 ft 485 kts 320°
2026-04-11 03:52 -15.01752 -65.32440 34003 ft 484 kts 320°
2026-04-11 03:53 -14.97695 -65.36414 34003 ft 483 kts 320°
2026-04-11 03:53 -14.94382 -65.39656 34003 ft 482 kts 320°
2026-04-11 03:54 -14.89510 -65.44418 34003 ft 482 kts 320°
2026-04-11 03:54 -14.85372 -65.48461 34003 ft 482 kts 320°
2026-04-11 03:55 -14.80491 -65.53226 34003 ft 482 kts 320°
2026-04-11 03:55 -14.75635 -65.57964 34003 ft 482 kts 320°
2026-04-11 03:56 -14.70779 -65.62701 34003 ft 481 kts 320°
2026-04-11 03:56 -14.65898 -65.67458 34003 ft 481 kts 320°
2026-04-11 03:57 -14.61032 -65.72199 34003 ft 481 kts 320°
2026-04-11 03:57 -14.56164 -65.76939 34003 ft 481 kts 320°
2026-04-11 03:58 -14.51282 -65.81689 34003 ft 481 kts 320°
2026-04-11 03:58 -14.46415 -65.86422 34003 ft 481 kts 320°
2026-04-11 03:59 -14.41555 -65.91146 34003 ft 481 kts 320°
2026-04-11 03:59 -14.36648 -65.95913 34003 ft 481 kts 320°
2026-04-11 04:00 -14.31777 -66.00641 34003 ft 481 kts 320°
2026-04-11 04:00 -14.27701 -66.04596 34003 ft 481 kts 320°
2026-04-11 04:01 -14.22849 -66.09300 34003 ft 481 kts 320°
2026-04-11 04:01 -14.17970 -66.14028 34003 ft 481 kts 320°
2026-04-11 04:02 -14.13081 -66.18762 34003 ft 481 kts 320°
2026-04-11 04:02 -14.08189 -66.23497 34003 ft 481 kts 320°
2026-04-11 04:03 -14.03325 -66.28202 34003 ft 481 kts 320°
2026-04-11 04:03 -13.98427 -66.32937 34003 ft 481 kts 320°
2026-04-11 04:04 -13.93545 -66.37652 34003 ft 481 kts 320°
2026-04-11 04:04 -13.88688 -66.42342 34003 ft 481 kts 321°
2026-04-11 04:05 -13.83805 -66.47053 34003 ft 481 kts 321°
2026-04-11 04:05 -13.78913 -66.51771 34003 ft 481 kts 321°
2026-04-11 04:06 -13.74033 -66.56474 34003 ft 481 kts 321°
2026-04-11 04:06 -13.69147 -66.61180 34003 ft 481 kts 321°
2026-04-11 04:07 -13.64234 -66.65909 34003 ft 481 kts 321°
2026-04-11 04:07 -13.59361 -66.70597 34003 ft 481 kts 321°
2026-04-11 04:08 -13.54475 -66.75294 34003 ft 481 kts 321°
2026-04-11 04:08 -13.49566 -66.80011 34003 ft 481 kts 321°
2026-04-11 04:09 -13.44675 -66.84708 34003 ft 481 kts 321°
2026-04-11 04:09 -13.39791 -66.89395 34003 ft 481 kts 321°
2026-04-11 04:10 -13.34909 -66.94078 34003 ft 481 kts 321°
2026-04-11 04:10 -13.30004 -66.98780 34003 ft 481 kts 321°
2026-04-11 04:11 -13.25137 -67.03443 34003 ft 481 kts 321°
2026-04-11 04:11 -13.20212 -67.08159 34003 ft 481 kts 321°
2026-04-11 04:12 -13.15326 -67.12834 34003 ft 481 kts 321°
2026-04-11 04:12 -13.10438 -67.17510 34003 ft 481 kts 321°
2026-04-11 04:13 -13.05530 -67.22201 34003 ft 481 kts 321°
2026-04-11 04:13 -13.00628 -67.26884 34003 ft 481 kts 321°
2026-04-11 04:14 -12.95743 -67.31549 34003 ft 481 kts 321°
2026-04-11 04:14 -12.90831 -67.36236 34003 ft 481 kts 321°
2026-04-11 04:15 -12.83502 -67.43224 34003 ft 481 kts 321°
2026-04-11 04:16 -12.78612 -67.47884 34003 ft 481 kts 321°
2026-04-11 04:16 -12.73689 -67.52573 34003 ft 481 kts 321°
2026-04-11 04:17 -12.68801 -67.57226 34003 ft 481 kts 321°
2026-04-11 04:17 -12.63912 -67.61877 34003 ft 481 kts 321°
2026-04-11 04:18 -12.58998 -67.66549 34003 ft 481 kts 321°
2026-04-11 04:18 -12.54121 -67.71184 34003 ft 481 kts 321°
2026-04-11 04:19 -12.49213 -67.75846 34003 ft 481 kts 321°
2026-04-11 04:19 -12.44303 -67.80507 34003 ft 481 kts 321°
2026-04-11 04:20 -12.39399 -67.85160 34003 ft 481 kts 321°
2026-04-11 04:20 -12.34489 -67.89816 34003 ft 481 kts 321°
2026-04-11 04:21 -12.29563 -67.94484 34003 ft 481 kts 321°
2026-04-11 04:21 -12.24673 -67.99116 34003 ft 481 kts 321°
2026-04-11 04:22 -12.19752 -68.03776 34003 ft 481 kts 321°
2026-04-11 04:22 -12.14849 -68.08416 34003 ft 481 kts 321°
2026-04-11 04:23 -12.09949 -68.13049 34003 ft 481 kts 321°
2026-04-11 04:23 -12.05043 -68.17688 34003 ft 481 kts 321°
2026-04-11 04:24 -12.00152 -68.22309 34003 ft 481 kts 321°
2026-04-11 04:24 -11.95226 -68.26961 34003 ft 481 kts 321°
2026-04-11 04:25 -11.90316 -68.31595 34003 ft 481 kts 321°
2026-04-11 04:25 -11.85418 -68.36216 34003 ft 481 kts 321°
2026-04-11 04:26 -11.80494 -68.40860 34003 ft 480 kts 321°
2026-04-11 04:26 -11.75590 -68.45483 34003 ft 480 kts 321°
2026-04-11 04:27 -11.70663 -68.50126 34003 ft 480 kts 321°
2026-04-11 04:27 -11.65727 -68.54742 34003 ft 480 kts 321°
2026-04-11 04:28 -11.60775 -68.59292 34003 ft 480 kts 322°
2026-04-11 04:28 -11.55794 -68.63839 34003 ft 480 kts 322°
2026-04-11 04:29 -11.50810 -68.68377 34003 ft 480 kts 322°
2026-04-11 04:29 -11.45835 -68.72903 34003 ft 480 kts 322°
2026-04-11 04:30 -11.40851 -68.77435 34003 ft 480 kts 322°
2026-04-11 04:30 -11.35879 -68.81955 34003 ft 480 kts 322°
2026-04-11 04:31 -11.30891 -68.86489 34003 ft 480 kts 322°
2026-04-11 04:31 -11.25906 -68.91019 34003 ft 480 kts 322°
2026-04-11 04:32 -11.20902 -68.95564 34003 ft 480 kts 322°
2026-04-11 04:32 -11.15918 -69.00089 34003 ft 480 kts 322°
2026-04-11 04:33 -11.11805 -69.03823 34003 ft 480 kts 322°
2026-04-11 04:33 -11.06788 -69.08375 34003 ft 480 kts 322°
2026-04-11 04:34 -11.01800 -69.12899 34003 ft 480 kts 322°
2026-04-11 04:34 -10.96792 -69.17439 34003 ft 480 kts 322°
2026-04-11 04:35 -10.91813 -69.21950 34003 ft 480 kts 322°
2026-04-11 04:35 -10.86824 -69.26469 34003 ft 480 kts 322°
2026-04-11 04:36 -10.81837 -69.30984 34003 ft 480 kts 322°
2026-04-11 04:36 -10.76847 -69.35498 34003 ft 480 kts 322°
2026-04-11 04:37 -10.71866 -69.40004 34003 ft 480 kts 322°
2026-04-11 04:37 -10.66856 -69.44534 34003 ft 480 kts 322°
2026-04-11 04:38 -10.61872 -69.49038 34003 ft 480 kts 322°
2026-04-11 04:38 -10.56877 -69.53549 34003 ft 480 kts 322°
2026-04-11 04:39 -10.51885 -69.58056 34003 ft 480 kts 322°
2026-04-11 04:39 -10.46898 -69.62557 34003 ft 480 kts 322°
2026-04-11 04:40 -10.41888 -69.67075 34003 ft 480 kts 322°
2026-04-11 04:40 -10.36907 -69.71566 34003 ft 480 kts 322°
2026-04-11 04:41 -10.31923 -69.76058 34003 ft 480 kts 322°
2026-04-11 04:41 -10.26919 -69.80566 34003 ft 480 kts 322°
2026-04-11 04:42 -10.21931 -69.85058 34003 ft 480 kts 322°
2026-04-11 04:42 -10.16925 -69.89563 34003 ft 480 kts 322°
2026-04-11 04:43 -10.11940 -69.94048 34003 ft 480 kts 322°
2026-04-11 04:43 -10.06942 -69.98542 34003 ft 480 kts 322°
2026-04-11 04:44 -10.01927 -70.03050 34003 ft 480 kts 322°
2026-04-11 04:44 -9.96933 -70.07537 34003 ft 480 kts 322°
2026-04-11 04:45 -9.91936 -70.12024 34003 ft 480 kts 322°
2026-04-11 04:45 -9.86947 -70.16504 34003 ft 480 kts 322°
2026-04-11 04:46 -9.81919 -70.21015 34003 ft 480 kts 322°
2026-04-11 04:46 -9.76941 -70.25480 34003 ft 480 kts 322°
2026-04-11 04:47 -9.71926 -70.29976 34003 ft 480 kts 322°
2026-04-11 04:47 -9.66941 -70.34444 34003 ft 480 kts 322°
2026-04-11 04:48 -9.61944 -70.38920 34003 ft 480 kts 322°
2026-04-11 04:48 -9.56934 -70.43407 34003 ft 480 kts 322°
2026-04-11 04:49 -9.51933 -70.47883 34003 ft 480 kts 322°
2026-04-11 04:49 -9.46931 -70.52359 34003 ft 480 kts 322°
2026-04-11 04:50 -9.41901 -70.56858 34003 ft 480 kts 322°
2026-04-11 04:50 -9.38112 -70.60245 34003 ft 480 kts 322°
2026-04-11 04:51 -9.33118 -70.64708 34003 ft 480 kts 322°
2026-04-11 04:51 -9.28129 -70.69166 34003 ft 480 kts 322°
2026-04-11 04:52 -9.23097 -70.73660 34003 ft 480 kts 322°
2026-04-11 04:52 -9.18090 -70.78130 34003 ft 480 kts 322°
2026-04-11 04:53 -9.13084 -70.82597 34003 ft 480 kts 322°
2026-04-11 04:53 -9.08061 -70.87077 34003 ft 480 kts 322°
2026-04-11 04:54 -9.03077 -70.91521 34003 ft 480 kts 322°
2026-04-11 04:54 -8.98049 -70.96002 34003 ft 480 kts 322°
2026-04-11 04:55 -8.93039 -71.00466 34003 ft 480 kts 322°
2026-04-11 04:55 -8.88039 -71.04919 34003 ft 480 kts 322°
2026-04-11 04:56 -8.83019 -71.09388 34003 ft 480 kts 322°
2026-04-11 04:56 -8.78012 -71.13844 34003 ft 480 kts 322°
2026-04-11 04:57 -8.73019 -71.18286 34003 ft 480 kts 322°
2026-04-11 04:57 -8.67996 -71.22753 34003 ft 480 kts 322°
2026-04-11 04:58 -8.62963 -71.27227 34003 ft 480 kts 322°
2026-04-11 04:58 -8.57966 -71.31668 34003 ft 480 kts 322°
2026-04-11 04:59 -8.52949 -71.36124 34003 ft 480 kts 322°
2026-04-11 04:59 -8.47939 -71.40573 34003 ft 480 kts 322°
2026-04-11 05:00 -8.42922 -71.45026 34003 ft 480 kts 322°
2026-04-11 05:00 -8.37894 -71.49487 34003 ft 480 kts 322°
2026-04-11 05:01 -8.32882 -71.53933 34003 ft 480 kts 322°
2026-04-11 05:01 -8.27874 -71.58374 34003 ft 480 kts 322°
2026-04-11 05:02 -8.22846 -71.62830 34003 ft 480 kts 322°
2026-04-11 05:02 -8.17841 -71.67265 34003 ft 480 kts 322°
2026-04-11 05:03 -8.12835 -71.71699 34003 ft 480 kts 322°
2026-04-11 05:03 -8.07804 -71.76154 34003 ft 480 kts 322°
2026-04-11 05:04 -8.02793 -71.80590 34003 ft 480 kts 322°
2026-04-11 05:04 -7.97767 -71.85037 34003 ft 480 kts 322°
2026-04-11 05:05 -7.91080 -71.90952 34003 ft 480 kts 322°
2026-04-11 05:05 -7.86056 -71.95394 34003 ft 480 kts 322°
2026-04-11 05:06 -7.81044 -71.99824 34003 ft 480 kts 322°
2026-04-11 05:06 -7.76029 -72.04255 34003 ft 480 kts 322°
2026-04-11 05:07 -7.71028 -72.08673 34003 ft 480 kts 322°
2026-04-11 05:07 -7.66003 -72.13109 34003 ft 480 kts 322°
2026-04-11 05:08 -7.60975 -72.17548 34003 ft 480 kts 322°
2026-04-11 05:08 -7.55943 -72.21988 34003 ft 480 kts 322°
2026-04-11 05:09 -7.50911 -72.26426 34003 ft 480 kts 322°
2026-04-11 05:09 -7.45910 -72.30837 34003 ft 480 kts 322°
2026-04-11 05:10 -7.40861 -72.35288 34003 ft 480 kts 322°
2026-04-11 05:10 -7.35830 -72.39722 34003 ft 480 kts 322°
2026-04-11 05:11 -7.30811 -72.44144 34003 ft 480 kts 322°
2026-04-11 05:11 -7.25810 -72.48548 34003 ft 480 kts 322°
2026-04-11 05:12 -7.20787 -72.52971 34003 ft 480 kts 322°
2026-04-11 05:12 -7.15735 -72.57417 34003 ft 480 kts 322°
2026-04-11 05:13 -7.10711 -72.61838 34003 ft 480 kts 322°
2026-04-11 05:13 -7.05688 -72.66257 34003 ft 479 kts 322°
2026-04-11 05:14 -7.00683 -72.70658 34003 ft 479 kts 322°
2026-04-11 05:14 -6.95644 -72.75088 34003 ft 479 kts 322°
2026-04-11 05:15 -6.90611 -72.79511 34003 ft 479 kts 322°
2026-04-11 05:15 -6.85596 -72.83918 34003 ft 479 kts 322°
2026-04-11 05:16 -6.80565 -72.88336 34003 ft 479 kts 322°
2026-04-11 05:16 -6.75547 -72.92744 34003 ft 479 kts 322°
2026-04-11 05:17 -6.70493 -72.97180 34003 ft 479 kts 322°
2026-04-11 05:17 -6.65498 -73.01563 34003 ft 479 kts 322°
2026-04-11 05:18 -6.60468 -73.05976 34003 ft 479 kts 322°
2026-04-11 05:18 -6.55424 -73.10401 34003 ft 479 kts 322°
2026-04-11 05:19 -6.50394 -73.14812 34003 ft 479 kts 322°
2026-04-11 05:19 -6.45356 -73.19228 34003 ft 479 kts 322°
2026-04-11 05:20 -6.40332 -73.23631 34003 ft 479 kts 322°
2026-04-11 05:20 -6.35319 -73.28023 34003 ft 479 kts 322°
2026-04-11 05:21 -6.30260 -73.32455 34003 ft 479 kts 322°
2026-04-11 05:21 -6.25239 -73.36851 34003 ft 479 kts 322°
2026-04-11 05:22 -6.20221 -73.41244 34003 ft 479 kts 322°
2026-04-11 05:22 -6.15186 -73.45651 34003 ft 479 kts 322°
2026-04-11 05:23 -6.10149 -73.50058 34003 ft 479 kts 322°
2026-04-11 05:23 -6.05124 -73.54454 34003 ft 479 kts 322°
2026-04-11 05:24 -6.00099 -73.58849 34003 ft 479 kts 322°
2026-04-11 05:24 -5.95062 -73.63253 34003 ft 479 kts 322°
2026-04-11 05:25 -5.90027 -73.67654 34003 ft 479 kts 322°
2026-04-11 05:25 -5.84974 -73.72070 34003 ft 479 kts 322°
2026-04-11 05:26 -5.79949 -73.76460 34003 ft 479 kts 322°
2026-04-11 05:26 -5.74916 -73.80856 34003 ft 479 kts 322°
2026-04-11 05:27 -5.69872 -73.85260 34003 ft 479 kts 322°
2026-04-11 05:27 -5.64846 -73.89648 34003 ft 479 kts 322°
2026-04-11 05:28 -5.59803 -73.94050 34003 ft 479 kts 322°
2026-04-11 05:28 -5.54789 -73.98425 34003 ft 479 kts 322°
2026-04-11 05:29 -5.49755 -74.02817 34003 ft 479 kts 322°
2026-04-11 05:29 -5.44705 -74.07221 34003 ft 479 kts 322°
2026-04-11 05:30 -5.39671 -74.11611 34003 ft 479 kts 322°
2026-04-11 05:30 -5.34643 -74.15994 34003 ft 479 kts 322°
2026-04-11 05:31 -5.29613 -74.20378 34003 ft 479 kts 322°
2026-04-11 05:31 -5.24556 -74.24785 34003 ft 479 kts 322°
2026-04-11 05:32 -5.19523 -74.29170 34003 ft 479 kts 322°
2026-04-11 05:32 -5.14485 -74.33558 34003 ft 479 kts 322°
2026-04-11 05:33 -5.09436 -74.37955 34003 ft 479 kts 323°
2026-04-11 05:33 -5.04402 -74.42338 34003 ft 479 kts 323°
2026-04-11 05:34 -4.99358 -74.46728 34003 ft 479 kts 323°
2026-04-11 05:34 -4.94316 -74.51116 34003 ft 479 kts 323°
2026-04-11 05:35 -4.89303 -74.55478 34003 ft 479 kts 323°
2026-04-11 05:35 -4.84241 -74.59881 34003 ft 479 kts 323°
2026-04-11 05:36 -4.79228 -74.64241 34003 ft 479 kts 323°
2026-04-11 05:36 -4.74166 -74.68643 34003 ft 479 kts 323°
2026-04-11 05:37 -4.69136 -74.73016 34003 ft 479 kts 323°
2026-04-11 05:37 -4.64946 -74.76658 34003 ft 479 kts 323°
2026-04-11 05:38 -4.59876 -74.81064 34003 ft 479 kts 323°
2026-04-11 05:38 -4.54847 -74.85434 34003 ft 479 kts 323°
2026-04-11 05:39 -4.49792 -74.89825 34003 ft 479 kts 323°
2026-04-11 05:39 -4.44745 -74.94209 34003 ft 479 kts 323°
2026-04-11 05:40 -4.39713 -74.98579 34003 ft 479 kts 323°
2026-04-11 05:40 -4.34649 -75.02975 34003 ft 479 kts 323°
2026-04-11 05:41 -4.29628 -75.07335 34003 ft 479 kts 323°
2026-04-11 05:41 -4.24575 -75.11720 34003 ft 479 kts 323°
2026-04-11 05:42 -4.19546 -75.16084 34003 ft 479 kts 323°
2026-04-11 05:42 -4.14505 -75.20458 34003 ft 479 kts 323°
2026-04-11 05:43 -4.09444 -75.24848 34003 ft 479 kts 323°
2026-04-11 05:43 -4.04405 -75.29218 34003 ft 479 kts 323°
2026-04-11 05:44 -3.99382 -75.33574 34003 ft 479 kts 323°
2026-04-11 05:44 -3.95964 -75.36537 34003 ft 479 kts 323°
2026-04-11 05:45 -3.90903 -75.40925 34003 ft 479 kts 323°
2026-04-11 05:45 -3.85846 -75.45309 34003 ft 479 kts 323°
2026-04-11 05:46 -3.80818 -75.49666 34003 ft 479 kts 323°
2026-04-11 05:46 -3.75778 -75.54033 34003 ft 479 kts 323°
2026-04-11 05:47 -3.70733 -75.58404 34003 ft 479 kts 323°
2026-04-11 05:47 -3.65687 -75.62775 34003 ft 479 kts 323°
2026-04-11 05:48 -3.60619 -75.67164 34003 ft 479 kts 323°
2026-04-11 05:48 -3.55584 -75.71524 34003 ft 479 kts 323°
2026-04-11 05:49 -3.50526 -75.75903 34003 ft 479 kts 323°
2026-04-11 05:49 -3.45468 -75.80282 34003 ft 479 kts 323°
2026-04-11 05:50 -3.40422 -75.84649 34003 ft 479 kts 323°
2026-04-11 05:50 -3.35386 -75.89008 34003 ft 479 kts 323°
2026-04-11 05:51 -3.30330 -75.93383 34003 ft 479 kts 323°
2026-04-11 05:51 -3.25285 -75.97748 34003 ft 479 kts 323°
2026-04-11 05:52 -3.20228 -76.02123 34003 ft 479 kts 323°
2026-04-11 05:52 -3.15213 -76.06461 34003 ft 479 kts 323°
2026-04-11 05:53 -3.10157 -76.10833 34003 ft 479 kts 323°
2026-04-11 05:53 -3.05088 -76.15216 34003 ft 479 kts 323°
2026-04-11 05:54 -3.00071 -76.19554 34003 ft 479 kts 323°
2026-04-11 05:54 -2.95015 -76.23926 34003 ft 479 kts 323°
2026-04-11 05:55 -2.89944 -76.28309 34003 ft 479 kts 323°
2026-04-11 05:55 -2.84891 -76.32676 34003 ft 479 kts 323°
2026-04-11 05:56 -2.79844 -76.37038 34003 ft 479 kts 323°
2026-04-11 05:56 -2.74811 -76.41387 34003 ft 479 kts 323°
2026-04-11 05:57 -2.69745 -76.45763 34003 ft 479 kts 323°
2026-04-11 05:57 -2.64697 -76.50124 34003 ft 479 kts 323°
2026-04-11 05:58 -2.59659 -76.54476 34003 ft 479 kts 323°
2026-04-11 05:58 -2.54618 -76.58831 34003 ft 479 kts 323°
2026-04-11 05:59 -2.49561 -76.63198 34003 ft 479 kts 323°
2026-04-11 05:59 -2.44505 -76.67564 34003 ft 479 kts 323°
2026-04-11 06:00 -2.39465 -76.71916 34003 ft 479 kts 323°
2026-04-11 06:00 -2.34417 -76.76274 34003 ft 479 kts 323°
2026-04-11 06:01 -2.29352 -76.80646 34003 ft 479 kts 323°
2026-04-11 06:01 -2.24310 -76.84998 34003 ft 479 kts 323°
2026-04-11 06:02 -2.19274 -76.89345 34003 ft 479 kts 323°
2026-04-11 06:02 -2.14216 -76.93710 34003 ft 479 kts 323°
2026-04-11 06:03 -2.09163 -76.98070 34003 ft 479 kts 323°
2026-04-11 06:03 -2.04106 -77.02433 34003 ft 479 kts 323°
2026-04-11 06:04 -1.99051 -77.06795 34003 ft 479 kts 323°
2026-04-11 06:04 -1.93997 -77.11156 34003 ft 479 kts 323°
2026-04-11 06:05 -1.88963 -77.15498 34003 ft 479 kts 323°
2026-04-11 06:05 -1.83887 -77.19877 34003 ft 479 kts 323°
2026-04-11 06:06 -1.76341 -77.26385 34003 ft 479 kts 323°
2026-04-11 06:07 -1.71284 -77.30746 34003 ft 479 kts 323°
2026-04-11 06:07 -1.66218 -77.35115 34003 ft 479 kts 323°
2026-04-11 06:08 -1.61158 -77.39478 34003 ft 479 kts 323°
2026-04-11 06:08 -1.56113 -77.43828 34003 ft 479 kts 323°
2026-04-11 06:09 -1.51058 -77.48186 34003 ft 479 kts 323°
2026-04-11 06:09 -1.46016 -77.52533 34003 ft 479 kts 323°
2026-04-11 06:10 -1.41800 -77.56167 34003 ft 479 kts 323°
2026-04-11 06:10 -1.36882 -77.60406 34003 ft 479 kts 323°
2026-04-11 06:11 -1.31826 -77.64765 34003 ft 479 kts 323°
2026-04-11 06:11 -1.26782 -77.69112 34003 ft 479 kts 323°
2026-04-11 06:12 -1.21713 -77.73481 34003 ft 479 kts 323°
2026-04-11 06:12 -1.16677 -77.77822 34003 ft 479 kts 323°
2026-04-11 06:13 -1.11626 -77.82175 34003 ft 479 kts 323°
2026-04-11 06:13 -1.06563 -77.86538 34003 ft 479 kts 323°
2026-04-11 06:14 -1.01491 -77.90908 34003 ft 479 kts 323°
2026-04-11 06:14 -0.96470 -77.95235 34003 ft 479 kts 323°
2026-04-11 06:15 -0.91383 -77.99618 34003 ft 479 kts 323°
2026-04-11 06:15 -0.86368 -78.03939 34003 ft 479 kts 323°
2026-04-11 06:16 -0.81291 -78.08314 34003 ft 479 kts 323°
2026-04-11 06:16 -0.76248 -78.12658 34003 ft 479 kts 323°
2026-04-11 06:17 -0.71207 -78.17001 34003 ft 479 kts 323°
2026-04-11 06:17 -0.66170 -78.21340 34003 ft 479 kts 323°
2026-04-11 06:18 -0.61108 -78.25702 34003 ft 479 kts 323°
2026-04-11 06:18 -0.56058 -78.30052 34003 ft 479 kts 323°
2026-04-11 06:19 -0.51004 -78.34405 34003 ft 479 kts 323°
2026-04-11 06:19 -0.45950 -78.38759 34003 ft 479 kts 323°
2026-04-11 06:20 -0.40885 -78.43122 34003 ft 479 kts 323°
2026-04-11 06:20 -0.35850 -78.47459 34003 ft 479 kts 323°
2026-04-11 06:21 -0.30770 -78.51835 34003 ft 479 kts 323°
2026-04-11 06:21 -0.25723 -78.56182 34003 ft 479 kts 323°
2026-04-11 06:22 -0.21555 -78.59773 34003 ft 479 kts 323°
2026-04-11 06:22 -0.16511 -78.64118 34003 ft 479 kts 323°
2026-04-11 06:23 -0.11458 -78.68470 34003 ft 479 kts 323°
2026-04-11 06:23 -0.06407 -78.72820 34003 ft 479 kts 323°
2026-04-11 06:24 -0.01350 -78.77176 34003 ft 479 kts 323°
2026-04-11 06:24 0.03709 -78.81534 34003 ft 479 kts 323°
2026-04-11 06:25 0.08772 -78.85895 34003 ft 479 kts 323°
2026-04-11 06:25 0.13804 -78.90229 34003 ft 479 kts 323°
2026-04-11 06:26 0.18867 -78.94591 34003 ft 479 kts 323°
2026-04-11 06:26 0.23914 -78.98938 34003 ft 479 kts 323°
2026-04-11 06:27 0.28971 -79.03294 34003 ft 479 kts 323°
2026-04-11 06:27 0.34010 -79.07635 34003 ft 479 kts 323°
2026-04-11 06:28 0.39059 -79.11984 34003 ft 479 kts 323°
2026-04-11 06:28 0.44112 -79.16337 34003 ft 479 kts 323°
2026-04-11 06:29 0.49191 -79.20713 34003 ft 479 kts 323°
2026-04-11 06:29 0.54216 -79.25042 34003 ft 479 kts 323°
2026-04-11 06:30 0.59286 -79.29410 34003 ft 479 kts 323°
2026-04-11 06:30 0.64302 -79.33731 34003 ft 479 kts 323°
2026-04-11 06:31 0.69371 -79.38099 34003 ft 479 kts 323°
2026-04-11 06:31 0.74429 -79.42458 34003 ft 479 kts 323°
2026-04-11 06:32 0.79470 -79.46802 34003 ft 479 kts 323°
2026-04-11 06:32 0.84526 -79.51160 34003 ft 479 kts 323°
2026-04-11 06:33 0.89598 -79.55533 34003 ft 479 kts 323°
2026-04-11 06:33 0.94638 -79.59879 34003 ft 479 kts 323°
2026-04-11 06:34 0.99648 -79.64291 34003 ft 480 kts 322°
2026-04-11 06:34 1.04639 -79.68783 34003 ft 480 kts 321°
2026-04-11 06:35 1.09579 -79.73268 34003 ft 480 kts 321°
2026-04-11 06:35 1.14523 -79.77770 34003 ft 480 kts 321°
2026-04-11 06:36 1.19454 -79.82264 34003 ft 480 kts 321°
2026-04-11 06:36 1.24375 -79.86747 34003 ft 480 kts 321°
2026-04-11 06:37 1.29348 -79.91277 34003 ft 480 kts 321°
2026-04-11 06:37 1.34253 -79.95743 34003 ft 480 kts 321°
2026-04-11 06:38 1.39220 -80.00270 34003 ft 480 kts 321°
2026-04-11 06:38 1.44110 -80.04833 34003 ft 481 kts 320°
2026-04-11 06:39 1.48936 -80.09417 34003 ft 481 kts 320°
2026-04-11 06:39 1.53781 -80.14049 34003 ft 481 kts 320°
2026-04-11 06:40 1.58628 -80.18693 34003 ft 481 kts 320°
2026-04-11 06:40 1.63442 -80.23308 34003 ft 481 kts 320°
2026-04-11 06:41 1.68281 -80.27948 34003 ft 481 kts 320°
2026-04-11 06:41 1.73119 -80.32587 34003 ft 481 kts 320°
2026-04-11 06:42 1.77118 -80.36420 34003 ft 481 kts 320°
2026-04-11 06:42 1.82763 -80.41832 34003 ft 481 kts 320°
2026-04-11 06:43 1.86797 -80.45699 34003 ft 481 kts 320°
2026-04-11 06:43 1.91625 -80.50327 34003 ft 481 kts 320°
2026-04-11 06:44 1.96459 -80.54961 34003 ft 481 kts 320°
2026-04-11 06:44 2.01294 -80.59595 34003 ft 481 kts 320°
2026-04-11 06:45 2.06099 -80.64202 34003 ft 481 kts 320°
2026-04-11 06:45 2.10937 -80.68840 34003 ft 481 kts 320°
2026-04-11 06:46 2.15778 -80.73482 34003 ft 481 kts 320°
2026-04-11 06:46 2.20601 -80.78107 34003 ft 481 kts 320°
2026-04-11 06:47 2.25422 -80.82730 34003 ft 481 kts 320°
2026-04-11 06:47 2.30263 -80.87374 34003 ft 481 kts 320°
2026-04-11 06:48 2.35072 -80.91986 34003 ft 481 kts 320°
2026-04-11 06:48 2.39928 -80.96644 34003 ft 481 kts 320°
2026-04-11 06:49 2.44728 -81.01249 34003 ft 481 kts 320°
2026-04-11 06:49 2.49569 -81.05894 34003 ft 481 kts 320°
2026-04-11 06:50 2.54381 -81.10511 34003 ft 481 kts 320°
2026-04-11 06:50 2.59207 -81.15143 34003 ft 481 kts 320°
2026-04-11 06:51 2.64069 -81.19809 34003 ft 481 kts 320°
2026-04-11 06:51 2.68885 -81.24431 34003 ft 481 kts 320°
2026-04-11 06:52 2.73719 -81.29072 34003 ft 481 kts 320°
2026-04-11 06:52 2.78537 -81.33698 34003 ft 481 kts 320°
2026-04-11 06:53 2.83353 -81.38322 34003 ft 481 kts 320°
2026-04-11 06:53 2.88170 -81.42948 34003 ft 481 kts 320°
2026-04-11 06:54 2.92990 -81.47578 34003 ft 481 kts 320°
2026-04-11 06:54 2.97836 -81.52233 34003 ft 481 kts 320°
2026-04-11 06:55 3.02638 -81.56846 34003 ft 480 kts 320°
2026-04-11 06:55 3.07473 -81.61492 34003 ft 480 kts 320°
2026-04-11 06:56 3.12281 -81.66112 34003 ft 480 kts 320°
2026-04-11 06:56 3.17106 -81.70749 34003 ft 480 kts 320°
2026-04-11 06:57 3.21948 -81.75403 34003 ft 480 kts 320°
2026-04-11 06:57 3.26772 -81.80040 34003 ft 480 kts 320°
2026-04-11 06:58 3.31578 -81.84661 34003 ft 481 kts 320°
2026-04-11 06:58 3.36422 -81.89320 34003 ft 481 kts 320°
2026-04-11 06:59 3.41228 -81.93941 34003 ft 481 kts 320°
2026-04-11 06:59 3.46050 -81.98579 34003 ft 481 kts 320°
2026-04-11 07:00 3.50865 -82.03212 34003 ft 481 kts 320°
2026-04-11 07:00 3.55704 -82.07868 34003 ft 481 kts 320°
2026-04-11 07:01 3.60507 -82.12490 34003 ft 481 kts 320°
2026-04-11 07:01 3.65327 -82.17129 34003 ft 481 kts 320°
2026-04-11 07:02 3.70156 -82.21777 34003 ft 481 kts 320°
2026-04-11 07:02 3.74969 -82.26411 34003 ft 481 kts 320°
2026-04-11 07:03 3.79818 -82.31081 34003 ft 481 kts 320°
2026-04-11 07:03 3.84629 -82.35714 34003 ft 481 kts 320°
2026-04-11 07:04 3.89442 -82.40350 34003 ft 481 kts 320°
2026-04-11 07:04 3.94292 -82.45023 34003 ft 481 kts 320°
2026-04-11 07:05 3.99086 -82.49642 34003 ft 481 kts 320°
2026-04-11 07:05 4.03927 -82.54308 34003 ft 481 kts 320°
2026-04-11 07:06 4.08753 -82.58960 34003 ft 481 kts 320°
2026-04-11 07:06 4.13576 -82.63609 34003 ft 481 kts 320°
2026-04-11 07:07 4.18390 -82.68251 34003 ft 481 kts 320°
2026-04-11 07:07 4.23187 -82.72878 34003 ft 481 kts 320°
2026-04-11 07:08 4.28012 -82.77531 34003 ft 481 kts 320°
2026-04-11 07:08 4.32856 -82.82205 34003 ft 481 kts 320°
2026-04-11 07:09 4.37666 -82.86847 34003 ft 481 kts 320°
2026-04-11 07:09 4.42502 -82.91514 34003 ft 481 kts 320°
2026-04-11 07:10 4.49723 -82.98485 34003 ft 481 kts 320°
2026-04-11 07:10 4.54556 -83.03151 34003 ft 481 kts 320°
2026-04-11 07:11 4.59384 -83.07814 34003 ft 481 kts 320°
2026-04-11 07:11 4.64175 -83.12442 34003 ft 481 kts 320°
2026-04-11 07:12 4.69016 -83.17120 34003 ft 481 kts 320°
2026-04-11 07:12 4.73806 -83.21749 34003 ft 481 kts 320°
2026-04-11 07:13 4.78645 -83.26426 34003 ft 481 kts 320°
2026-04-11 07:13 4.83459 -83.31080 34003 ft 481 kts 320°
2026-04-11 07:14 4.88278 -83.35740 34003 ft 481 kts 320°
2026-04-11 07:14 4.93111 -83.40414 34003 ft 481 kts 320°
2026-04-11 07:15 4.97903 -83.45050 34003 ft 481 kts 320°
2026-04-11 07:15 5.02725 -83.49716 34003 ft 481 kts 320°
2026-04-11 07:16 5.06751 -83.53612 34003 ft 481 kts 320°
2026-04-11 07:16 5.11554 -83.58261 34003 ft 481 kts 320°
2026-04-11 07:17 5.16401 -83.62954 34003 ft 481 kts 320°
2026-04-11 07:17 5.21194 -83.67596 34003 ft 481 kts 320°
2026-04-11 07:18 5.26022 -83.72272 34003 ft 481 kts 320°
2026-04-11 07:18 5.30851 -83.76951 34003 ft 481 kts 320°
2026-04-11 07:19 5.35653 -83.81604 34003 ft 481 kts 320°
2026-04-11 07:19 5.40480 -83.86282 34003 ft 481 kts 320°
2026-04-11 07:20 5.45292 -83.90948 34003 ft 481 kts 320°
2026-04-11 07:20 5.50115 -83.95625 34003 ft 481 kts 320°
2026-04-11 07:21 5.54917 -84.00283 34003 ft 481 kts 320°
2026-04-11 07:21 5.59716 -84.04938 34003 ft 481 kts 320°
2026-04-11 07:22 5.64529 -84.09610 34003 ft 481 kts 320°
2026-04-11 07:22 5.69362 -84.14301 34003 ft 481 kts 320°
2026-04-11 07:23 5.74167 -84.18965 34003 ft 481 kts 320°
2026-04-11 07:23 5.78974 -84.23635 34003 ft 481 kts 320°
2026-04-11 07:24 5.83796 -84.28318 34003 ft 481 kts 320°
2026-04-11 07:24 5.88629 -84.33014 34003 ft 481 kts 320°
2026-04-11 07:25 5.93410 -84.37661 34003 ft 481 kts 320°
2026-04-11 07:25 5.98234 -84.42351 34003 ft 481 kts 320°
2026-04-11 07:26 6.03063 -84.47046 34003 ft 481 kts 320°
2026-04-11 07:26 6.07849 -84.51701 34003 ft 481 kts 320°
2026-04-11 07:27 6.12691 -84.56412 34003 ft 481 kts 320°
2026-04-11 07:27 6.17473 -84.61065 34003 ft 481 kts 320°
2026-04-11 07:28 6.22292 -84.65756 34003 ft 481 kts 320°
2026-04-11 07:28 6.27119 -84.70456 34003 ft 481 kts 320°
2026-04-11 07:29 6.31915 -84.75127 34003 ft 481 kts 320°
2026-04-11 07:29 6.36734 -84.79822 34003 ft 481 kts 320°
2026-04-11 07:30 6.41541 -84.84506 34003 ft 481 kts 320°
2026-04-11 07:30 6.46324 -84.89168 34003 ft 481 kts 320°
2026-04-11 07:31 6.51167 -84.93891 34003 ft 481 kts 320°
2026-04-11 07:31 6.55956 -84.98561 34003 ft 481 kts 320°
2026-04-11 07:32 6.60769 -85.03256 34003 ft 481 kts 320°
2026-04-11 07:32 6.65576 -85.07947 34003 ft 481 kts 320°
2026-04-11 07:33 6.70356 -85.12613 34003 ft 481 kts 320°
2026-04-11 07:33 6.75184 -85.17327 34003 ft 481 kts 320°
2026-04-11 07:34 6.79990 -85.22022 34003 ft 481 kts 320°
2026-04-11 07:34 6.84767 -85.26688 34003 ft 481 kts 320°
2026-04-11 07:35 6.89584 -85.31396 34003 ft 481 kts 320°
2026-04-11 07:35 6.94406 -85.36109 34003 ft 481 kts 320°
2026-04-11 07:36 6.99195 -85.40793 34003 ft 481 kts 320°
2026-04-11 07:36 7.03987 -85.45480 34003 ft 481 kts 320°
2026-04-11 07:37 7.08789 -85.50178 34003 ft 481 kts 320°
2026-04-11 07:37 7.13600 -85.54887 34003 ft 481 kts 320°
2026-04-11 07:38 7.18391 -85.59578 34003 ft 481 kts 320°
2026-04-11 07:38 7.23201 -85.64289 34003 ft 481 kts 320°
2026-04-11 07:39 7.28002 -85.68992 34003 ft 481 kts 320°
2026-04-11 07:39 7.32801 -85.73695 34003 ft 481 kts 320°
2026-04-11 07:40 7.37590 -85.78389 34003 ft 481 kts 320°
2026-04-11 07:40 7.42389 -85.83095 34003 ft 481 kts 320°
2026-04-11 07:41 7.47210 -85.87824 34003 ft 481 kts 320°
2026-04-11 07:41 7.51979 -85.92503 34003 ft 481 kts 320°
2026-04-11 07:42 7.56782 -85.97218 34003 ft 481 kts 320°
2026-04-11 07:43 7.63979 -86.04285 34003 ft 481 kts 320°
2026-04-11 07:43 7.68788 -86.09009 34003 ft 481 kts 320°
2026-04-11 07:44 7.73565 -86.13703 34003 ft 481 kts 320°
2026-04-11 07:44 7.78391 -86.18447 34003 ft 481 kts 319°
2026-04-11 07:45 7.83180 -86.23157 34003 ft 481 kts 319°
2026-04-11 07:45 7.87957 -86.27855 34003 ft 481 kts 319°
2026-04-11 07:46 7.92758 -86.32580 34003 ft 481 kts 319°
2026-04-11 07:46 7.97539 -86.37286 34003 ft 481 kts 319°
2026-04-11 07:47 8.02325 -86.41999 34003 ft 481 kts 319°
2026-04-11 07:47 8.07124 -86.46726 34003 ft 481 kts 319°
2026-04-11 07:48 8.11902 -86.51434 34003 ft 481 kts 319°
2026-04-11 07:48 8.16693 -86.56157 34003 ft 481 kts 319°
2026-04-11 07:49 8.21505 -86.60901 34003 ft 481 kts 319°
2026-04-11 07:49 8.26267 -86.65599 34003 ft 481 kts 319°
2026-04-11 07:50 8.30276 -86.69555 34003 ft 481 kts 319°
2026-04-11 07:50 8.35065 -86.74282 34003 ft 481 kts 319°
2026-04-11 07:51 8.39841 -86.78998 34003 ft 481 kts 319°
2026-04-11 07:51 8.44643 -86.83742 34003 ft 481 kts 319°
2026-04-11 07:52 8.49435 -86.88477 34003 ft 481 kts 319°
2026-04-11 07:52 8.54211 -86.93198 34003 ft 481 kts 319°
2026-04-11 07:53 8.59006 -86.97940 34003 ft 481 kts 319°
2026-04-11 07:53 8.63777 -87.02660 34003 ft 481 kts 319°
2026-04-11 07:54 8.68565 -87.07397 34003 ft 481 kts 319°
2026-04-11 07:54 8.73362 -87.12147 34003 ft 481 kts 319°
2026-04-11 07:55 8.78137 -87.16875 34003 ft 481 kts 319°
2026-04-11 07:55 8.82921 -87.21616 34003 ft 481 kts 319°
2026-04-11 07:56 8.87696 -87.26348 34003 ft 481 kts 319°
2026-04-11 07:56 8.92502 -87.31113 34003 ft 481 kts 319°
2026-04-11 07:57 8.97286 -87.35858 34003 ft 481 kts 319°
2026-04-11 07:57 9.02054 -87.40590 34003 ft 481 kts 319°
2026-04-11 07:58 9.06828 -87.45329 34003 ft 481 kts 319°
2026-04-11 07:58 9.11631 -87.50099 34003 ft 481 kts 319°
2026-04-11 07:59 9.16401 -87.54837 34003 ft 481 kts 319°
2026-04-11 07:59 9.21182 -87.59589 34003 ft 481 kts 319°
2026-04-11 08:00 9.25955 -87.64335 34003 ft 481 kts 319°
2026-04-11 08:00 9.30736 -87.69090 34003 ft 481 kts 319°
2026-04-11 08:01 9.35530 -87.73861 34003 ft 481 kts 319°
2026-04-11 08:01 9.40289 -87.78598 34003 ft 481 kts 319°
2026-04-11 08:02 9.45091 -87.83380 34003 ft 481 kts 319°
2026-04-11 08:02 9.49840 -87.88112 34003 ft 481 kts 319°
2026-04-11 08:03 9.54616 -87.92871 34003 ft 481 kts 319°
2026-04-11 08:03 9.59400 -87.97642 34003 ft 481 kts 319°
2026-04-11 08:04 9.64168 -88.02398 34003 ft 481 kts 319°
2026-04-11 08:04 9.68941 -88.07162 34003 ft 481 kts 319°
2026-04-11 08:05 9.73715 -88.11928 34003 ft 481 kts 319°
2026-04-11 08:05 9.78502 -88.16709 34003 ft 481 kts 319°
2026-04-11 08:06 9.83272 -88.21475 34003 ft 481 kts 319°
2026-04-11 08:06 9.88037 -88.26238 34003 ft 481 kts 319°
2026-04-11 08:07 9.92801 -88.31002 34003 ft 481 kts 319°
2026-04-11 08:07 9.97573 -88.35778 34003 ft 481 kts 319°
2026-04-11 08:08 10.04732 -88.42944 34003 ft 481 kts 319°
2026-04-11 08:08 10.09516 -88.47735 34003 ft 481 kts 319°
2026-04-11 08:09 10.14262 -88.52491 34003 ft 481 kts 319°
2026-04-11 08:09 10.19035 -88.57276 34003 ft 481 kts 319°
2026-04-11 08:10 10.23805 -88.62060 34003 ft 481 kts 319°
2026-04-11 08:10 10.28559 -88.66830 34003 ft 481 kts 319°
2026-04-11 08:11 10.33346 -88.71635 34003 ft 481 kts 319°
2026-04-11 08:11 10.38090 -88.76400 34003 ft 481 kts 319°
2026-04-11 08:12 10.42875 -88.81207 34003 ft 481 kts 319°
2026-04-11 08:12 10.47615 -88.85972 34003 ft 481 kts 319°
2026-04-11 08:13 10.52373 -88.90757 34003 ft 481 kts 319°
2026-04-11 08:13 10.57153 -88.95566 34003 ft 482 kts 319°
2026-04-11 08:14 10.61921 -89.00366 34003 ft 482 kts 319°
2026-04-11 08:14 10.66659 -89.05137 34003 ft 482 kts 319°
2026-04-11 08:15 10.71438 -89.09953 34003 ft 482 kts 319°
2026-04-11 08:15 10.76213 -89.14766 34003 ft 482 kts 319°
2026-04-11 08:16 10.80953 -89.19546 34003 ft 482 kts 319°
2026-04-11 08:16 10.85711 -89.24347 34003 ft 482 kts 319°
2026-04-11 08:17 10.90450 -89.29130 34003 ft 482 kts 319°
2026-04-11 08:17 10.95235 -89.33962 34003 ft 482 kts 319°
2026-04-11 08:18 10.99994 -89.38771 34003 ft 482 kts 319°
2026-04-11 08:18 11.04739 -89.43567 34003 ft 482 kts 319°
2026-04-11 08:19 11.09493 -89.48376 34003 ft 482 kts 319°
2026-04-11 08:19 11.14246 -89.53185 34003 ft 482 kts 319°
2026-04-11 08:20 11.19005 -89.58002 34003 ft 482 kts 319°
2026-04-11 08:20 11.23758 -89.62816 34003 ft 482 kts 319°
2026-04-11 08:21 11.28504 -89.67626 34003 ft 482 kts 319°
2026-04-11 08:21 11.33249 -89.72437 34003 ft 482 kts 319°
2026-04-11 08:22 11.38011 -89.77267 34003 ft 482 kts 319°
2026-04-11 08:22 11.42755 -89.82082 34003 ft 482 kts 319°
2026-04-11 08:23 11.46718 -89.86105 34003 ft 482 kts 319°
2026-04-11 08:23 11.51480 -89.90943 34003 ft 482 kts 319°
2026-04-11 08:24 11.56216 -89.95755 34003 ft 482 kts 319°
2026-04-11 08:24 11.60961 -90.00581 34003 ft 482 kts 319°
2026-04-11 08:25 11.65712 -90.05414 34003 ft 482 kts 319°
2026-04-11 08:25 11.70453 -90.10240 34003 ft 482 kts 319°
2026-04-11 08:26 11.75176 -90.15050 34003 ft 482 kts 319°
2026-04-11 08:26 11.79933 -90.19897 34003 ft 482 kts 319°
2026-04-11 08:27 11.84659 -90.24714 34003 ft 482 kts 319°
2026-04-11 08:27 11.89401 -90.29551 34003 ft 482 kts 319°
2026-04-11 08:28 11.94154 -90.34402 34003 ft 482 kts 319°
2026-04-11 08:28 11.98889 -90.39236 34003 ft 482 kts 319°
2026-04-11 08:29 12.03625 -90.44075 34003 ft 482 kts 319°
2026-04-11 08:29 12.08378 -90.48933 34003 ft 482 kts 319°
2026-04-11 08:30 12.13102 -90.53764 34003 ft 482 kts 319°
2026-04-11 08:30 12.17848 -90.58620 34003 ft 482 kts 319°
2026-04-11 08:31 12.22592 -90.63476 34003 ft 482 kts 319°
2026-04-11 08:31 12.27305 -90.68304 34003 ft 482 kts 319°
2026-04-11 08:32 12.32060 -90.73178 34003 ft 482 kts 319°
2026-04-11 08:32 12.36789 -90.78027 34003 ft 482 kts 319°
2026-04-11 08:33 12.41525 -90.82886 34003 ft 482 kts 319°
2026-04-11 08:33 12.46231 -90.87717 34003 ft 482 kts 319°
2026-04-11 08:34 12.50977 -90.92591 34003 ft 482 kts 319°
2026-04-11 08:34 12.55704 -90.97449 34003 ft 482 kts 319°
2026-04-11 08:35 12.60431 -91.02309 34003 ft 482 kts 319°
2026-04-11 08:35 12.65155 -91.07169 34003 ft 482 kts 319°
2026-04-11 08:36 12.69899 -91.12052 34003 ft 482 kts 319°
2026-04-11 08:36 12.74629 -91.16924 34003 ft 482 kts 319°
2026-04-11 08:37 12.79365 -91.21804 34003 ft 482 kts 319°
2026-04-11 08:37 12.84089 -91.26675 34003 ft 482 kts 319°
2026-04-11 08:38 12.88798 -91.31534 34003 ft 482 kts 319°
2026-04-11 08:38 12.93523 -91.36412 34003 ft 482 kts 319°
2026-04-11 08:39 12.98250 -91.41293 34003 ft 482 kts 319°
2026-04-11 08:39 13.02963 -91.46164 34003 ft 482 kts 319°
2026-04-11 08:40 13.07680 -91.51042 34003 ft 482 kts 319°
2026-04-11 08:40 13.12436 -91.55963 34003 ft 482 kts 319°
2026-04-11 08:41 13.17125 -91.60817 34003 ft 482 kts 319°
2026-04-11 08:41 13.21859 -91.65721 34003 ft 482 kts 319°
2026-04-11 08:42 13.26571 -91.70605 34003 ft 482 kts 319°
2026-04-11 08:43 13.33647 -91.77945 34003 ft 482 kts 319°
2026-04-11 08:43 13.38314 -91.82789 34003 ft 482 kts 319°
2026-04-11 08:44 13.43028 -91.87685 34003 ft 482 kts 319°
2026-04-11 08:44 13.47736 -91.92578 34003 ft 482 kts 319°
2026-04-11 08:45 13.52438 -91.97467 34003 ft 482 kts 319°
2026-04-11 08:45 13.57175 -92.02394 34003 ft 482 kts 319°
2026-04-11 08:46 13.61898 -92.07312 34003 ft 482 kts 319°
2026-04-11 08:46 13.66613 -92.12224 34003 ft 482 kts 318°
2026-04-11 08:47 13.71314 -92.17124 34003 ft 482 kts 318°
2026-04-11 08:47 13.76005 -92.22016 34003 ft 482 kts 318°
2026-04-11 08:48 13.80727 -92.26944 34003 ft 482 kts 318°
2026-04-11 08:48 13.85433 -92.31858 34003 ft 482 kts 318°
2026-04-11 08:49 13.90131 -92.36767 34003 ft 482 kts 318°
2026-04-11 08:49 13.94860 -92.41711 34003 ft 482 kts 318°
2026-04-11 08:50 13.99549 -92.46617 34003 ft 482 kts 318°
2026-04-11 08:50 14.04240 -92.51527 34003 ft 482 kts 318°
2026-04-11 08:51 14.08939 -92.56450 34003 ft 482 kts 318°
2026-04-11 08:51 14.13636 -92.61373 34003 ft 482 kts 318°
2026-04-11 08:52 14.20711 -92.68794 34003 ft 482 kts 318°
2026-04-11 08:52 14.25409 -92.73725 34003 ft 482 kts 318°
2026-04-11 08:53 14.30094 -92.78647 34003 ft 482 kts 318°
2026-04-11 08:53 14.34804 -92.83598 34003 ft 482 kts 318°
2026-04-11 08:54 14.39484 -92.88520 34003 ft 482 kts 318°
2026-04-11 08:54 14.44191 -92.93474 34003 ft 482 kts 318°
2026-04-11 08:55 14.48865 -92.98397 34003 ft 482 kts 318°
2026-04-11 08:55 14.53580 -93.03365 34003 ft 482 kts 318°
2026-04-11 08:56 14.58273 -93.08314 34003 ft 482 kts 318°
2026-04-11 08:56 14.62944 -93.13243 34003 ft 482 kts 318°
2026-04-11 08:57 14.66847 -93.17363 34003 ft 482 kts 318°
2026-04-11 08:57 14.71564 -93.22346 34003 ft 482 kts 318°
2026-04-11 08:58 14.76233 -93.27282 34003 ft 482 kts 318°
2026-04-11 08:58 14.80941 -93.32263 34003 ft 482 kts 318°
2026-04-11 08:59 14.85620 -93.37215 34003 ft 482 kts 318°
2026-04-11 08:59 14.90312 -93.42185 34003 ft 482 kts 318°
2026-04-11 09:00 14.94992 -93.47145 34003 ft 482 kts 318°
2026-04-11 09:00 14.99683 -93.52121 34003 ft 482 kts 318°
2026-04-11 09:01 15.04357 -93.57082 34003 ft 482 kts 318°
2026-04-11 09:01 15.09046 -93.62062 34003 ft 482 kts 318°
2026-04-11 09:02 15.13736 -93.67047 34003 ft 482 kts 318°
2026-04-11 09:02 15.18399 -93.72006 34003 ft 482 kts 318°
2026-04-11 09:03 15.23084 -93.76992 34003 ft 482 kts 318°
2026-04-11 09:03 15.27768 -93.81979 34003 ft 482 kts 318°
2026-04-11 09:04 15.32444 -93.86963 34003 ft 482 kts 318°
2026-04-11 09:04 15.37111 -93.91939 34003 ft 482 kts 318°
2026-04-11 09:05 15.41786 -93.96928 34003 ft 482 kts 318°
2026-04-11 09:05 15.46454 -94.01913 34003 ft 482 kts 318°
2026-04-11 09:06 15.51131 -94.06911 34003 ft 482 kts 318°
2026-04-11 09:06 15.55807 -94.11911 34003 ft 482 kts 318°
2026-04-11 09:07 15.60495 -94.16928 34003 ft 482 kts 318°
2026-04-11 09:07 15.65143 -94.21905 34003 ft 482 kts 318°
2026-04-11 09:08 15.69821 -94.26919 34003 ft 482 kts 318°
2026-04-11 09:08 15.74487 -94.31922 34003 ft 482 kts 318°
2026-04-11 09:09 15.79161 -94.36938 34003 ft 482 kts 318°
2026-04-11 09:09 15.83833 -94.41955 34003 ft 482 kts 318°
2026-04-11 09:10 15.88476 -94.46945 34003 ft 482 kts 318°
2026-04-11 09:10 15.93148 -94.51969 34003 ft 482 kts 318°
2026-04-11 09:11 15.97817 -94.56994 34003 ft 482 kts 318°
2026-04-11 09:11 16.02474 -94.62010 34003 ft 482 kts 318°
2026-04-11 09:12 16.07146 -94.67045 34003 ft 482 kts 318°
2026-04-11 09:12 16.11780 -94.72044 34003 ft 482 kts 318°
2026-04-11 09:13 16.16455 -94.77090 34003 ft 482 kts 318°
2026-04-11 09:13 16.21090 -94.82097 34003 ft 482 kts 318°
2026-04-11 09:14 16.25764 -94.87150 34003 ft 482 kts 318°
2026-04-11 09:14 16.30429 -94.92198 34003 ft 482 kts 317°
2026-04-11 09:15 16.35082 -94.97237 34003 ft 482 kts 317°
2026-04-11 09:15 16.39729 -95.02275 34003 ft 482 kts 317°
2026-04-11 09:16 16.44375 -95.07329 34003 ft 483 kts 317°
2026-04-11 09:16 16.48904 -95.12476 34003 ft 483 kts 316°
2026-04-11 09:17 16.53380 -95.17717 34003 ft 484 kts 315°
2026-04-11 09:17 16.57830 -95.22986 34003 ft 484 kts 315°
2026-04-11 09:18 16.62248 -95.28238 34003 ft 484 kts 315°
2026-04-11 09:18 16.66681 -95.33517 34003 ft 484 kts 315°
2026-04-11 09:19 16.71129 -95.38817 34003 ft 484 kts 315°
2026-04-11 09:19 16.75563 -95.44103 34003 ft 484 kts 315°
2026-04-11 09:20 16.80018 -95.49416 34003 ft 484 kts 315°
2026-04-11 09:20 16.84451 -95.54705 34003 ft 484 kts 315°
2026-04-11 09:21 16.88864 -95.59973 34003 ft 484 kts 315°
2026-04-11 09:21 16.93300 -95.65272 34003 ft 484 kts 315°
2026-04-11 09:22 16.97740 -95.70579 34003 ft 484 kts 315°
2026-04-11 09:22 17.02170 -95.75877 34003 ft 484 kts 315°
2026-04-11 09:23 17.06605 -95.81187 34003 ft 484 kts 315°
2026-04-11 09:23 17.11026 -95.86482 34003 ft 484 kts 315°
2026-04-11 09:24 17.15449 -95.91784 34003 ft 484 kts 315°
2026-04-11 09:24 17.19878 -95.97099 34003 ft 484 kts 315°
2026-04-11 09:25 17.24323 -96.02436 34003 ft 484 kts 315°
2026-04-11 09:25 17.28741 -96.07744 34003 ft 484 kts 315°
2026-04-11 09:26 17.33163 -96.13062 34003 ft 484 kts 315°
2026-04-11 09:26 17.37567 -96.18362 34003 ft 484 kts 315°
2026-04-11 09:27 17.41989 -96.23688 34003 ft 484 kts 315°
2026-04-11 09:27 17.46419 -96.29028 34003 ft 484 kts 315°
2026-04-11 09:28 17.50109 -96.33479 34003 ft 484 kts 315°
2026-04-11 09:28 17.54523 -96.38808 34003 ft 484 kts 315°
2026-04-11 09:29 17.58913 -96.44112 34003 ft 484 kts 315°
2026-04-11 09:29 17.63346 -96.49473 34003 ft 484 kts 315°
2026-04-11 09:30 17.67760 -96.54814 34003 ft 484 kts 315°
2026-04-11 09:30 17.72185 -96.60174 34003 ft 484 kts 315°
2026-04-11 09:31 17.76567 -96.65486 34003 ft 484 kts 315°
2026-04-11 09:31 17.81000 -96.70863 34003 ft 484 kts 315°
2026-04-11 09:32 17.85404 -96.76210 34003 ft 484 kts 315°
2026-04-11 09:32 17.89793 -96.81544 34003 ft 484 kts 315°
2026-04-11 09:33 17.94190 -96.86892 34003 ft 484 kts 315°
2026-04-11 09:33 17.98606 -96.92266 34003 ft 484 kts 315°
2026-04-11 09:34 18.03005 -96.97626 34003 ft 484 kts 315°
2026-04-11 09:34 18.07414 -97.03001 34003 ft 484 kts 315°
2026-04-11 09:35 18.11797 -97.08349 34003 ft 484 kts 315°
2026-04-11 09:35 18.16200 -97.13726 34003 ft 484 kts 315°
2026-04-11 09:36 18.20581 -97.19081 34003 ft 484 kts 315°
2026-04-11 09:36 18.24970 -97.24451 34003 ft 484 kts 315°
2026-04-11 09:37 18.29360 -97.29826 34003 ft 484 kts 315°
2026-04-11 09:37 18.33764 -97.35223 34003 ft 484 kts 315°
2026-04-11 09:38 18.38154 -97.40607 34003 ft 484 kts 315°
2026-04-11 09:38 18.42535 -97.45984 34003 ft 484 kts 315°
2026-04-11 09:39 18.46927 -97.51381 34003 ft 484 kts 314°
2026-04-11 09:39 18.51308 -97.56769 34003 ft 484 kts 314°
2026-04-11 09:40 18.55700 -97.62173 34003 ft 484 kts 314°
2026-04-11 09:40 18.60066 -97.67552 34003 ft 484 kts 314°
2026-04-11 09:41 18.64445 -97.72950 34003 ft 484 kts 314°
2026-04-11 09:41 18.68841 -97.78374 34003 ft 484 kts 314°
2026-04-11 09:42 18.73238 -97.83805 34003 ft 484 kts 314°
2026-04-11 09:43 18.79788 -97.91905 34003 ft 484 kts 314°
2026-04-11 09:43 18.84171 -97.97330 34003 ft 484 kts 314°
2026-04-11 09:44 18.88525 -98.02724 34003 ft 484 kts 314°
2026-04-11 09:44 18.92901 -98.08151 34003 ft 484 kts 314°
2026-04-11 09:45 18.97279 -98.13586 34003 ft 484 kts 314°
2026-04-11 09:45 19.01629 -98.18991 34003 ft 484 kts 314°
2026-04-11 09:46 19.06012 -98.24442 34003 ft 484 kts 314°
2026-04-11 09:46 19.10380 -98.29882 34003 ft 485 kts 314°
2026-04-11 09:47 19.14774 -98.35309 34003 ft 484 kts 315°
2026-04-11 09:47 19.19338 -98.40468 34003 ft 482 kts 318°
2026-04-11 09:48 19.24060 -98.45548 34003 ft 482 kts 319°
2026-04-11 09:48 19.28800 -98.50564 34003 ft 482 kts 319°
2026-04-11 09:49 19.33546 -98.55566 34003 ft 482 kts 319°
2026-04-11 09:49 19.38313 -98.60593 34003 ft 482 kts 319°
2026-04-11 09:50 19.43051 -98.65598 34003 ft 482 kts 319°
2026-04-11 09:50 19.47790 -98.70613 34003 ft 482 kts 319°
2026-04-11 09:51 19.52520 -98.75628 34003 ft 482 kts 319°
2026-04-11 09:51 19.57277 -98.80680 34003 ft 482 kts 319°
2026-04-11 09:52 19.62010 -98.85713 34003 ft 482 kts 319°
2026-04-11 09:52 19.66716 -98.90724 34003 ft 482 kts 319°
2026-04-11 09:53 19.71454 -98.95776 34003 ft 482 kts 319°
2026-04-11 09:53 19.76194 -99.00836 34003 ft 482 kts 319°
2026-04-11 09:54 19.80920 -99.05885 34003 ft 482 kts 319°
2026-04-11 09:54 19.85630 -99.10922 34003 ft 482 kts 319°
2026-04-11 09:55 19.90352 -99.15979 34003 ft 482 kts 319°
2026-04-11 09:55 19.95065 -99.21029 34003 ft 482 kts 319°
2026-04-11 09:56 19.99797 -99.26104 34003 ft 482 kts 319°
2026-04-11 09:56 20.04524 -99.31180 34003 ft 482 kts 319°
2026-04-11 09:57 20.09249 -99.36257 34003 ft 482 kts 319°
2026-04-11 09:57 20.13951 -99.41315 34003 ft 482 kts 319°
2026-04-11 09:58 20.18665 -99.46390 34003 ft 482 kts 319°
2026-04-11 09:58 20.23369 -99.51460 34003 ft 482 kts 319°
2026-04-11 09:59 20.28096 -99.56558 34003 ft 482 kts 318°
2026-04-11 09:59 20.32822 -99.61660 34003 ft 482 kts 318°
2026-04-11 10:00 20.37503 -99.66719 34003 ft 482 kts 318°
2026-04-11 10:00 20.42223 -99.71823 34003 ft 482 kts 318°
2026-04-11 10:01 20.46914 -99.76902 34003 ft 482 kts 318°
2026-04-11 10:01 20.50844 -99.81161 34003 ft 482 kts 318°
2026-04-11 10:02 20.56335 -99.87115 34003 ft 482 kts 318°
2026-04-11 10:02 20.60243 -99.91358 34003 ft 482 kts 318°
2026-04-11 10:03 20.64957 -99.96479 34003 ft 482 kts 318°
2026-04-11 10:03 20.69648 -100.01582 34003 ft 482 kts 318°
2026-04-11 10:04 20.74370 -100.06722 34003 ft 482 kts 318°
2026-04-11 10:04 20.79074 -100.11847 34003 ft 482 kts 318°
2026-04-11 10:05 20.83767 -100.16965 34003 ft 482 kts 318°
2026-04-11 10:05 20.88455 -100.22082 34003 ft 482 kts 318°
2026-04-11 10:06 20.93143 -100.27204 34003 ft 482 kts 318°
2026-04-11 10:06 20.97847 -100.32350 34003 ft 482 kts 318°
2026-04-11 10:07 21.02526 -100.37472 34003 ft 482 kts 318°
2026-04-11 10:07 21.07206 -100.42600 34003 ft 482 kts 318°
2026-04-11 10:08 21.11899 -100.47748 34003 ft 482 kts 318°
2026-04-11 10:08 21.16597 -100.52906 34003 ft 482 kts 318°
2026-04-11 10:09 21.21280 -100.58052 34003 ft 482 kts 318°
2026-04-11 10:09 21.25969 -100.63211 34003 ft 482 kts 318°
2026-04-11 10:10 21.30655 -100.68371 34003 ft 482 kts 318°
2026-04-11 10:10 21.35323 -100.73516 34003 ft 482 kts 318°
2026-04-11 10:11 21.40011 -100.78688 34003 ft 482 kts 318°
2026-04-11 10:11 21.44650 -100.83810 34003 ft 482 kts 318°
2026-04-11 10:12 21.49359 -100.89016 34003 ft 482 kts 318°
2026-04-11 10:12 21.54021 -100.94174 34003 ft 482 kts 318°
2026-04-11 10:13 21.58693 -100.99350 34003 ft 482 kts 318°
2026-04-11 10:13 21.63365 -101.04529 34003 ft 482 kts 318°
2026-04-11 10:14 21.68038 -101.09715 34003 ft 482 kts 318°
2026-04-11 10:14 21.72728 -101.14926 34003 ft 482 kts 318°
2026-04-11 10:15 21.77397 -101.20117 34003 ft 482 kts 318°
2026-04-11 10:15 21.82068 -101.25317 34003 ft 482 kts 318°
2026-04-11 10:16 21.86734 -101.30516 34003 ft 482 kts 318°
2026-04-11 10:16 21.91397 -101.35717 34003 ft 482 kts 318°
2026-04-11 10:17 21.96056 -101.40918 34003 ft 482 kts 318°
2026-04-11 10:17 22.00708 -101.46117 34003 ft 482 kts 318°
2026-04-11 10:18 22.05343 -101.51302 34003 ft 482 kts 318°
2026-04-11 10:18 22.10019 -101.56539 34003 ft 482 kts 318°
2026-04-11 10:19 22.14663 -101.61745 34003 ft 482 kts 317°
2026-04-11 10:19 22.19332 -101.66984 34003 ft 482 kts 317°
2026-04-11 10:20 22.23980 -101.72205 34003 ft 482 kts 317°
2026-04-11 10:20 22.28643 -101.77448 34003 ft 482 kts 317°
2026-04-11 10:21 22.33277 -101.82665 34003 ft 482 kts 317°
2026-04-11 10:21 22.37932 -101.87910 34003 ft 482 kts 317°
2026-04-11 10:22 22.42576 -101.93147 34003 ft 482 kts 317°
2026-04-11 10:22 22.47215 -101.98385 34003 ft 483 kts 317°
2026-04-11 10:23 22.51861 -102.03636 34003 ft 483 kts 317°
2026-04-11 10:23 22.56511 -102.08898 34003 ft 483 kts 317°
2026-04-11 10:24 22.61140 -102.14141 34003 ft 483 kts 317°
2026-04-11 10:24 22.65771 -102.19391 34003 ft 483 kts 317°
2026-04-11 10:25 22.70422 -102.24669 34003 ft 483 kts 317°
2026-04-11 10:25 22.75044 -102.29921 34003 ft 483 kts 317°
2026-04-11 10:26 22.79701 -102.35217 34003 ft 483 kts 317°
2026-04-11 10:26 22.84333 -102.40491 34003 ft 483 kts 317°
2026-04-11 10:27 22.88963 -102.45768 34003 ft 483 kts 317°
2026-04-11 10:27 22.93573 -102.51028 34003 ft 483 kts 317°
2026-04-11 10:28 22.98193 -102.56305 34003 ft 483 kts 317°
2026-04-11 10:28 23.02827 -102.61603 34003 ft 483 kts 317°
2026-04-11 10:29 23.07448 -102.66893 34003 ft 483 kts 317°
2026-04-11 10:29 23.12073 -102.72192 34003 ft 483 kts 317°
2026-04-11 10:30 23.16691 -102.77490 34003 ft 483 kts 317°
2026-04-11 10:30 23.21322 -102.82807 34003 ft 483 kts 317°
2026-04-11 10:31 23.25939 -102.88114 34003 ft 483 kts 317°
2026-04-11 10:31 23.30553 -102.93424 34003 ft 483 kts 317°
2026-04-11 10:32 23.35173 -102.98746 34003 ft 483 kts 317°
2026-04-11 10:32 23.39768 -103.04046 34003 ft 483 kts 317°
2026-04-11 10:33 23.43625 -103.08499 34003 ft 483 kts 317°
2026-04-11 10:33 23.48214 -103.13801 34003 ft 483 kts 317°
2026-04-11 10:34 23.52832 -103.19143 34003 ft 483 kts 317°
2026-04-11 10:34 23.57444 -103.24484 34003 ft 483 kts 317°
2026-04-11 10:35 23.62026 -103.29797 34003 ft 483 kts 317°
2026-04-11 10:35 23.66648 -103.35161 34003 ft 483 kts 317°
2026-04-11 10:36 23.71232 -103.40487 34003 ft 483 kts 317°
2026-04-11 10:36 23.75830 -103.45836 34003 ft 483 kts 317°
2026-04-11 10:37 23.80435 -103.51199 34003 ft 483 kts 317°
2026-04-11 10:37 23.85030 -103.56555 34003 ft 483 kts 317°
2026-04-11 10:38 23.89611 -103.61902 34003 ft 483 kts 317°
2026-04-11 10:38 23.96506 -103.69960 34003 ft 483 kts 317°
2026-04-11 10:39 24.01091 -103.75327 34003 ft 483 kts 317°
2026-04-11 10:39 24.05686 -103.80710 34003 ft 483 kts 317°
2026-04-11 10:40 24.10286 -103.86106 34003 ft 483 kts 317°
2026-04-11 10:40 24.14856 -103.91472 34003 ft 483 kts 317°
2026-04-11 10:41 24.19446 -103.96868 34003 ft 483 kts 317°
2026-04-11 10:41 24.24026 -104.02259 34003 ft 483 kts 317°
2026-04-11 10:42 24.28595 -104.07643 34003 ft 483 kts 317°
2026-04-11 10:42 24.33178 -104.13048 34003 ft 483 kts 317°
2026-04-11 10:43 24.40034 -104.21148 34003 ft 483 kts 317°
2026-04-11 10:44 24.44607 -104.26558 34003 ft 483 kts 317°
2026-04-11 10:44 24.49168 -104.31959 34003 ft 483 kts 317°
2026-04-11 10:45 24.53753 -104.37396 34003 ft 483 kts 316°
2026-04-11 10:45 24.58299 -104.42792 34003 ft 483 kts 316°
2026-04-11 10:46 24.62864 -104.48218 34003 ft 483 kts 316°
2026-04-11 10:46 24.67449 -104.53674 34003 ft 483 kts 316°
2026-04-11 10:47 24.71993 -104.59087 34003 ft 483 kts 316°
2026-04-11 10:47 24.76562 -104.64535 34003 ft 483 kts 316°
2026-04-11 10:48 24.81110 -104.69966 34003 ft 483 kts 316°
2026-04-11 10:48 24.85694 -104.75445 34003 ft 483 kts 316°
2026-04-11 10:49 24.90246 -104.80893 34003 ft 483 kts 316°
2026-04-11 10:49 24.94792 -104.86340 34003 ft 483 kts 316°
2026-04-11 10:50 24.99352 -104.91811 34003 ft 483 kts 316°
2026-04-11 10:50 25.03885 -104.97255 34003 ft 483 kts 316°
2026-04-11 10:51 25.08428 -105.02718 34003 ft 483 kts 316°
2026-04-11 10:51 25.12970 -105.08186 34003 ft 483 kts 316°
2026-04-11 10:52 25.17502 -105.13648 34003 ft 483 kts 316°
2026-04-11 10:52 25.22047 -105.19132 34003 ft 483 kts 316°
2026-04-11 10:53 25.26604 -105.24639 34003 ft 483 kts 316°
2026-04-11 10:53 25.31135 -105.30120 34003 ft 483 kts 316°
2026-04-11 10:54 25.35665 -105.35605 34003 ft 483 kts 316°
2026-04-11 10:54 25.40199 -105.41102 34003 ft 483 kts 316°
2026-04-11 10:55 25.44751 -105.46629 34003 ft 483 kts 316°
2026-04-11 10:55 25.49260 -105.52109 34003 ft 483 kts 316°
2026-04-11 10:56 25.53789 -105.57621 34003 ft 483 kts 316°
2026-04-11 10:56 25.58264 -105.63072 34003 ft 483 kts 316°
2026-04-11 10:57 25.62828 -105.68641 34003 ft 483 kts 316°
2026-04-11 10:57 25.67369 -105.74187 34003 ft 483 kts 316°
2026-04-11 10:58 25.71891 -105.79716 34003 ft 483 kts 316°
2026-04-11 10:58 25.76397 -105.85233 34003 ft 483 kts 316°
2026-04-11 10:59 25.80916 -105.90772 34003 ft 483 kts 316°
2026-04-11 10:59 25.85438 -105.96322 34003 ft 483 kts 316°
2026-04-11 11:00 25.89945 -106.01861 34003 ft 483 kts 316°
2026-04-11 11:00 25.94458 -106.07414 34003 ft 483 kts 316°
2026-04-11 11:01 25.98970 -106.12972 34003 ft 484 kts 316°
2026-04-11 11:01 26.03461 -106.18511 34003 ft 484 kts 316°
2026-04-11 11:02 26.07980 -106.24092 34003 ft 484 kts 316°
2026-04-11 11:02 26.12483 -106.29660 34003 ft 484 kts 316°
2026-04-11 11:03 26.16984 -106.35232 34003 ft 484 kts 316°
2026-04-11 11:03 26.20726 -106.39870 34003 ft 484 kts 316°
2026-04-11 11:04 26.25224 -106.45452 34003 ft 484 kts 316°
2026-04-11 11:04 26.30454 -106.51950 34003 ft 484 kts 316°
2026-04-11 11:05 26.34219 -106.56635 34003 ft 484 kts 316°
2026-04-11 11:05 26.38711 -106.62229 34003 ft 484 kts 316°
2026-04-11 11:06 26.43206 -106.67835 34003 ft 484 kts 316°
2026-04-11 11:06 26.47672 -106.73412 34003 ft 484 kts 316°
2026-04-11 11:07 26.52157 -106.79020 34003 ft 484 kts 316°
2026-04-11 11:07 26.56620 -106.84606 34003 ft 484 kts 316°
2026-04-11 11:08 26.61116 -106.90242 34003 ft 484 kts 315°
2026-04-11 11:08 26.65593 -106.95861 34003 ft 484 kts 315°
2026-04-11 11:09 26.70077 -107.01495 34003 ft 484 kts 315°
2026-04-11 11:09 26.74541 -107.07113 34003 ft 484 kts 315°
2026-04-11 11:10 26.79006 -107.12737 34003 ft 484 kts 315°
2026-04-11 11:10 26.83484 -107.18387 34003 ft 484 kts 315°
2026-04-11 11:11 26.87944 -107.24021 34003 ft 484 kts 315°
2026-04-11 11:11 26.92406 -107.29664 34003 ft 484 kts 315°
2026-04-11 11:12 26.96886 -107.35338 34003 ft 484 kts 315°
2026-04-11 11:12 27.01340 -107.40985 34003 ft 484 kts 315°
2026-04-11 11:13 27.05813 -107.46665 34003 ft 484 kts 315°
2026-04-11 11:13 27.10244 -107.52298 34003 ft 484 kts 315°
2026-04-11 11:14 27.14728 -107.58006 34003 ft 484 kts 315°
2026-04-11 11:14 27.19168 -107.63666 34003 ft 484 kts 315°
2026-04-11 11:15 27.23622 -107.69351 34003 ft 484 kts 315°
2026-04-11 11:15 27.28071 -107.75038 34003 ft 484 kts 315°
2026-04-11 11:16 27.32495 -107.80699 34003 ft 484 kts 315°
2026-04-11 11:16 27.36947 -107.86405 34003 ft 484 kts 315°
2026-04-11 11:17 27.41404 -107.92123 34003 ft 484 kts 315°
2026-04-11 11:17 27.45830 -107.97809 34003 ft 484 kts 315°
2026-04-11 11:18 27.50261 -108.03510 34003 ft 484 kts 315°
2026-04-11 11:18 27.54699 -108.09228 34003 ft 484 kts 315°
2026-04-11 11:19 27.59144 -108.14962 34003 ft 484 kts 315°
2026-04-11 11:19 27.63569 -108.20677 34003 ft 484 kts 315°
2026-04-11 11:20 27.68013 -108.26426 34003 ft 484 kts 315°
2026-04-11 11:20 27.72416 -108.32128 34003 ft 484 kts 315°
2026-04-11 11:21 27.76864 -108.37897 34003 ft 484 kts 315°
2026-04-11 11:21 27.81261 -108.43606 34003 ft 484 kts 315°
2026-04-11 11:22 27.85694 -108.49372 34003 ft 484 kts 315°
2026-04-11 11:22 27.90098 -108.55106 34003 ft 484 kts 315°
2026-04-11 11:23 27.94533 -108.60889 34003 ft 484 kts 315°
2026-04-11 11:23 27.98944 -108.66649 34003 ft 484 kts 315°
2026-04-11 11:24 28.03357 -108.72419 34003 ft 484 kts 315°
2026-04-11 11:24 28.07756 -108.78178 34003 ft 484 kts 315°
2026-04-11 11:25 28.12171 -108.83968 34003 ft 484 kts 315°
2026-04-11 11:25 28.16551 -108.89718 34003 ft 484 kts 315°
2026-04-11 11:26 28.20962 -108.95517 34003 ft 484 kts 315°
2026-04-11 11:26 28.25368 -109.01317 34003 ft 484 kts 315°
2026-04-11 11:27 28.29752 -109.07097 34003 ft 484 kts 315°
2026-04-11 11:27 28.34144 -109.12896 34003 ft 484 kts 315°
2026-04-11 11:28 28.38540 -109.18706 34003 ft 484 kts 315°
2026-04-11 11:28 28.42930 -109.24518 34003 ft 484 kts 315°
2026-04-11 11:29 28.49509 -109.33243 34003 ft 484 kts 314°
2026-04-11 11:29 28.53899 -109.39075 34003 ft 485 kts 314°
2026-04-11 11:30 28.58299 -109.44928 34003 ft 485 kts 314°
2026-04-11 11:30 28.62663 -109.50742 34003 ft 485 kts 314°
2026-04-11 11:31 28.67059 -109.56607 34003 ft 485 kts 314°
2026-04-11 11:31 28.71425 -109.62439 34003 ft 485 kts 314°
2026-04-11 11:32 28.75809 -109.68303 34003 ft 485 kts 314°
2026-04-11 11:32 28.80163 -109.74137 34003 ft 485 kts 314°
2026-04-11 11:33 28.84535 -109.80002 34003 ft 485 kts 314°
2026-04-11 11:33 28.88884 -109.85845 34003 ft 485 kts 314°
2026-04-11 11:34 28.93249 -109.91718 34003 ft 485 kts 314°
2026-04-11 11:34 28.97637 -109.97631 34003 ft 485 kts 314°
2026-04-11 11:35 29.01984 -110.03496 34003 ft 485 kts 314°
2026-04-11 11:35 29.06326 -110.09362 34003 ft 485 kts 314°
2026-04-11 11:36 29.10696 -110.15275 34003 ft 485 kts 314°
2026-04-11 11:36 29.15022 -110.21138 34003 ft 485 kts 314°
2026-04-11 11:37 29.19380 -110.27053 34003 ft 485 kts 314°
2026-04-11 11:37 29.23724 -110.32956 34003 ft 485 kts 314°
2026-04-11 11:38 29.28065 -110.38864 34003 ft 485 kts 314°
2026-04-11 11:38 29.31685 -110.43797 34003 ft 485 kts 314°
2026-04-11 11:39 29.36040 -110.49740 34003 ft 485 kts 314°
2026-04-11 11:39 29.40369 -110.55656 34003 ft 485 kts 314°
2026-04-11 11:40 29.44724 -110.61616 34003 ft 485 kts 314°
2026-04-11 11:40 29.49059 -110.67558 34003 ft 485 kts 314°
2026-04-11 11:41 29.53365 -110.73468 34003 ft 485 kts 314°
2026-04-11 11:41 29.57683 -110.79404 34003 ft 485 kts 314°
2026-04-11 11:42 29.62005 -110.85353 34003 ft 485 kts 314°
2026-04-11 11:42 29.66333 -110.91321 34003 ft 485 kts 314°
2026-04-11 11:43 29.70653 -110.97285 34003 ft 485 kts 314°
2026-04-11 11:43 29.74964 -111.03246 34003 ft 485 kts 314°
2026-04-11 11:44 29.79271 -111.09211 34003 ft 485 kts 314°
2026-04-11 11:44 29.83583 -111.15191 34003 ft 485 kts 314°
2026-04-11 11:45 29.87915 -111.21208 34003 ft 485 kts 314°
2026-04-11 11:45 29.92199 -111.27167 34003 ft 485 kts 314°
2026-04-11 11:46 29.96511 -111.33173 34003 ft 485 kts 314°
2026-04-11 11:46 30.00809 -111.39170 34003 ft 485 kts 314°
2026-04-11 11:47 30.05109 -111.45178 34003 ft 485 kts 314°
2026-04-11 11:47 30.09419 -111.51209 34003 ft 485 kts 313°
2026-04-11 11:48 30.13695 -111.57201 34003 ft 485 kts 313°
2026-04-11 11:48 30.18005 -111.63252 34003 ft 485 kts 313°
2026-04-11 11:49 30.22291 -111.69277 34003 ft 485 kts 313°
2026-04-11 11:49 30.26557 -111.75282 34003 ft 485 kts 313°
2026-04-11 11:50 30.30840 -111.81321 34003 ft 485 kts 313°
2026-04-11 11:50 30.32761 -111.84033 34003 ft 485 kts 313°
2026-04-11 11:51 30.37035 -111.90073 34003 ft 485 kts 313°
2026-04-11 11:51 30.41319 -111.96136 34003 ft 485 kts 313°
2026-04-11 11:52 30.45594 -112.02194 34003 ft 485 kts 313°
2026-04-11 11:52 30.49859 -112.08249 34003 ft 485 kts 313°
2026-04-11 11:53 30.54125 -112.14314 34003 ft 485 kts 313°
2026-04-11 11:53 30.58394 -112.20393 34003 ft 485 kts 313°
2026-04-11 11:54 30.62655 -112.26471 34003 ft 485 kts 313°
2026-04-11 11:54 30.66930 -112.32576 34003 ft 485 kts 313°
2026-04-11 11:55 30.71191 -112.38673 34003 ft 485 kts 313°
2026-04-11 11:55 30.75457 -112.44786 34003 ft 485 kts 313°
2026-04-11 11:56 30.79695 -112.50866 34003 ft 485 kts 313°
2026-04-11 11:56 30.83948 -112.56980 34003 ft 486 kts 313°
2026-04-11 11:57 30.88185 -112.63079 34003 ft 486 kts 313°
2026-04-11 11:57 30.92445 -112.69221 34003 ft 486 kts 313°
2026-04-11 11:58 30.96684 -112.75343 34003 ft 486 kts 313°
2026-04-11 11:58 31.00934 -112.81488 34003 ft 486 kts 313°
2026-04-11 11:59 31.05153 -112.87601 34003 ft 486 kts 313°
2026-04-11 11:59 31.09402 -112.93766 34003 ft 486 kts 313°
2026-04-11 12:00 31.13634 -112.99916 34003 ft 486 kts 313°
2026-04-11 12:00 31.17859 -113.06065 34003 ft 486 kts 313°
2026-04-11 12:01 31.22094 -113.12238 34003 ft 486 kts 313°
2026-04-11 12:01 31.26314 -113.18401 34003 ft 486 kts 313°
2026-04-11 12:02 31.30520 -113.24552 34003 ft 486 kts 313°
2026-04-11 12:02 31.34733 -113.30723 34003 ft 486 kts 313°
2026-04-11 12:03 31.38947 -113.36905 34003 ft 486 kts 313°
2026-04-11 12:03 31.43172 -113.43114 34003 ft 486 kts 313°
2026-04-11 12:04 31.47355 -113.49271 34003 ft 486 kts 313°
2026-04-11 12:04 31.51565 -113.55477 34003 ft 486 kts 313°
2026-04-11 12:05 31.55787 -113.61711 34003 ft 486 kts 313°
2026-04-11 12:05 31.59986 -113.67921 34003 ft 486 kts 312°
2026-04-11 12:06 31.64175 -113.74127 34003 ft 486 kts 312°
2026-04-11 12:06 31.68359 -113.80335 34003 ft 486 kts 312°
2026-04-11 12:07 31.72568 -113.86591 34003 ft 486 kts 312°
2026-04-11 12:07 31.76734 -113.92792 34003 ft 486 kts 312°
2026-04-11 12:08 31.80927 -113.99045 34003 ft 486 kts 312°
2026-04-11 12:08 31.85114 -114.05297 34003 ft 486 kts 312°
2026-04-11 12:09 31.89279 -114.11528 34003 ft 486 kts 312°
2026-04-11 12:09 31.93474 -114.17814 34003 ft 486 kts 312°
2026-04-11 12:10 31.97663 -114.24102 34003 ft 486 kts 312°
2026-04-11 12:10 32.01823 -114.30356 34003 ft 486 kts 312°
2026-04-11 12:11 32.05975 -114.36609 34003 ft 486 kts 312°
2026-04-11 12:11 32.10167 -114.42931 34003 ft 486 kts 312°
2026-04-11 12:12 32.14307 -114.49188 34003 ft 486 kts 312°
2026-04-11 12:12 32.17799 -114.54472 34003 ft 486 kts 312°
2026-04-11 12:13 32.21945 -114.60755 34003 ft 486 kts 312°
2026-04-11 12:13 32.26102 -114.67067 34003 ft 486 kts 312°
2026-04-11 12:14 32.30248 -114.73372 34003 ft 486 kts 312°
2026-04-11 12:14 32.34396 -114.79691 34003 ft 486 kts 312°
2026-04-11 12:15 32.38543 -114.86019 34003 ft 486 kts 312°
2026-04-11 12:15 32.42696 -114.92368 34003 ft 486 kts 312°
2026-04-11 12:16 32.46817 -114.98678 34003 ft 486 kts 311°
2026-04-11 12:16 32.50953 -115.05024 34003 ft 486 kts 311°
2026-04-11 12:17 32.55114 -115.11421 34003 ft 486 kts 311°
2026-04-11 12:17 32.59243 -115.17781 34003 ft 486 kts 311°
2026-04-11 12:18 32.63566 -115.23888 34003 ft 483 kts 317°
2026-04-11 12:19 32.70919 -115.31975 34003 ft 480 kts 323°
2026-04-11 12:19 32.76021 -115.37140 34003 ft 479 kts 323°
2026-04-11 12:20 32.81137 -115.42247 34003 ft 479 kts 323°
2026-04-11 12:20 32.86250 -115.47350 34003 ft 479 kts 323°
2026-04-11 12:21 32.91350 -115.52458 34003 ft 479 kts 323°
2026-04-11 12:21 32.96442 -115.57582 34003 ft 479 kts 323°
2026-04-11 12:22 33.01523 -115.62716 34003 ft 479 kts 323°
2026-04-11 12:22 33.06615 -115.67881 34003 ft 479 kts 323°
2026-04-11 12:23 33.11699 -115.73053 34003 ft 479 kts 323°
2026-04-11 12:23 33.16754 -115.78210 34003 ft 480 kts 323°
2026-04-11 12:24 33.21843 -115.83414 34003 ft 480 kts 323°
2026-04-11 12:24 33.26893 -115.88589 34003 ft 480 kts 323°
2026-04-11 12:25 33.31956 -115.93788 34003 ft 480 kts 323°
2026-04-11 12:25 33.37039 -115.99017 34003 ft 480 kts 323°
2026-04-11 12:26 33.42063 -116.04194 34003 ft 480 kts 323°
2026-04-11 12:26 33.47145 -116.09442 34003 ft 480 kts 323°
2026-04-11 12:27 33.52191 -116.14660 34003 ft 480 kts 323°
2026-04-11 12:27 33.57218 -116.19867 34003 ft 480 kts 323°
2026-04-11 12:28 33.62257 -116.25095 34003 ft 480 kts 323°
2026-04-11 12:28 33.67326 -116.30364 34003 ft 480 kts 323°
2026-04-11 12:29 33.72374 -116.35619 34003 ft 480 kts 323°
2026-04-11 12:29 33.77414 -116.40874 34003 ft 480 kts 322°
2026-04-11 12:30 33.82453 -116.46136 34003 ft 480 kts 322°
2026-04-11 12:30 33.87489 -116.51404 34003 ft 480 kts 322°
2026-04-11 12:31 33.92532 -116.56689 34003 ft 480 kts 322°
2026-04-11 12:31 33.97542 -116.61947 34003 ft 480 kts 322°
2026-04-11 12:32 34.02581 -116.67244 34003 ft 480 kts 322°
2026-04-11 12:32 34.07602 -116.72532 34003 ft 480 kts 322°
2026-04-11 12:33 34.12646 -116.77852 34003 ft 480 kts 322°
2026-04-11 12:33 34.17669 -116.83158 34003 ft 480 kts 322°
2026-04-11 12:34 34.22700 -116.88481 34003 ft 480 kts 322°
2026-04-11 12:34 34.27712 -116.93794 34003 ft 480 kts 322°
2026-04-11 12:35 34.32755 -116.99148 34003 ft 480 kts 322°
2026-04-11 12:35 34.37765 -117.04476 34003 ft 480 kts 322°
2026-04-11 12:36 34.42786 -117.09824 34003 ft 480 kts 322°
2026-04-11 12:36 34.47786 -117.15160 34003 ft 480 kts 322°
2026-04-11 12:37 34.52787 -117.20504 34003 ft 480 kts 322°
2026-04-11 12:37 34.57797 -117.25868 34003 ft 480 kts 322°
2026-04-11 12:38 34.62792 -117.31223 34003 ft 480 kts 322°
2026-04-11 12:38 34.67795 -117.36598 34003 ft 480 kts 322°
2026-04-11 12:39 34.72787 -117.41969 34003 ft 480 kts 322°
2026-04-11 12:39 34.77799 -117.47371 34003 ft 480 kts 322°
2026-04-11 12:40 34.82796 -117.52765 34003 ft 480 kts 322°
2026-04-11 12:40 34.87793 -117.58169 34003 ft 480 kts 322°
2026-04-11 12:41 34.92788 -117.63580 34003 ft 480 kts 322°
2026-04-11 12:41 34.97771 -117.68987 34003 ft 480 kts 322°
2026-04-11 12:42 35.02783 -117.74435 34003 ft 480 kts 322°
2026-04-11 12:42 35.07770 -117.79864 34003 ft 480 kts 322°
2026-04-11 12:43 35.15231 -117.88006 34003 ft 480 kts 322°
2026-04-11 12:43 35.20200 -117.93439 34003 ft 480 kts 322°
2026-04-11 12:44 35.24373 -117.98009 34003 ft 480 kts 322°
2026-04-11 12:44 35.29332 -118.03449 34003 ft 480 kts 322°
2026-04-11 12:45 35.34320 -118.08929 34003 ft 480 kts 322°
2026-04-11 12:45 35.39284 -118.14393 34003 ft 480 kts 322°
2026-04-11 12:46 35.44254 -118.19873 34003 ft 480 kts 322°
2026-04-11 12:46 35.49237 -118.25378 34003 ft 480 kts 322°
2026-04-11 12:47 35.54192 -118.30860 34003 ft 480 kts 322°
2026-04-11 12:47 35.59156 -118.36361 34003 ft 480 kts 321°
2026-04-11 12:48 35.64110 -118.41862 34003 ft 480 kts 321°
2026-04-11 12:48 35.69055 -118.47362 34003 ft 480 kts 321°
2026-04-11 12:49 35.74032 -118.52908 34003 ft 480 kts 321°
2026-04-11 12:49 35.78980 -118.58431 34003 ft 480 kts 321°
2026-04-11 12:50 35.83917 -118.63951 34003 ft 480 kts 321°
2026-04-11 12:50 35.88877 -118.69506 34003 ft 480 kts 321°
2026-04-11 12:51 35.93825 -118.75059 34003 ft 481 kts 321°
2026-04-11 12:51 35.98768 -118.80616 34003 ft 481 kts 321°
2026-04-11 12:52 36.03713 -118.86184 34003 ft 481 kts 321°
2026-04-11 12:52 36.08651 -118.91755 34003 ft 481 kts 321°
2026-04-11 12:53 36.13582 -118.97328 34003 ft 481 kts 321°
2026-04-11 12:53 36.18538 -119.02939 34003 ft 481 kts 321°
2026-04-11 12:54 36.23456 -119.08516 34003 ft 481 kts 321°
2026-04-11 12:54 36.28383 -119.14115 34003 ft 481 kts 321°
2026-04-11 12:55 36.33336 -119.19753 34003 ft 481 kts 321°
2026-04-11 12:55 36.38255 -119.25363 34003 ft 481 kts 321°
2026-04-11 12:56 36.43161 -119.30968 34003 ft 481 kts 321°
2026-04-11 12:56 36.48091 -119.36611 34003 ft 481 kts 321°
2026-04-11 12:57 36.53031 -119.42275 34003 ft 481 kts 321°
2026-04-11 12:57 36.57913 -119.47883 34003 ft 481 kts 321°
2026-04-11 12:58 36.62852 -119.53568 34003 ft 481 kts 321°
2026-04-11 12:58 36.67762 -119.59230 34003 ft 481 kts 321°
2026-04-11 12:59 36.72650 -119.64879 34003 ft 481 kts 321°
2026-04-11 12:59 36.77569 -119.70574 34003 ft 481 kts 321°
2026-04-11 13:00 36.82461 -119.76254 34003 ft 481 kts 321°
2026-04-11 13:00 36.86539 -119.82946 34005 ft 492 kts 304°
2026-04-11 13:01 36.90790 -119.94714 34004 ft 498 kts 296°
2026-04-11 13:02 36.93191 -120.02811 34003 ft 499 kts 294°
2026-04-11 13:02 36.95526 -120.10996 34003 ft 499 kts 294°
2026-04-11 13:03 36.97857 -120.19197 34003 ft 499 kts 294°
2026-04-11 13:03 37.00194 -120.27357 34003 ft 498 kts 294°
2026-04-11 13:04 37.02550 -120.35515 34003 ft 498 kts 294°
2026-04-11 13:04 37.04911 -120.43631 34003 ft 498 kts 294°
2026-04-11 13:05 37.07303 -120.51817 34003 ft 498 kts 295°
2026-04-11 13:05 37.09683 -120.59941 34003 ft 498 kts 295°
2026-04-11 13:06 37.12079 -120.68114 34003 ft 498 kts 295°
2026-04-11 13:06 37.14455 -120.76221 34003 ft 498 kts 295°
2026-04-11 13:07 37.16849 -120.84400 34003 ft 498 kts 295°
2026-04-11 13:07 37.19235 -120.92565 34003 ft 498 kts 294°
2026-04-11 13:08 37.21616 -121.00734 34003 ft 498 kts 294°
2026-04-11 13:08 37.23977 -121.08852 34003 ft 498 kts 294°
2026-04-11 13:09 37.26345 -121.17018 34003 ft 498 kts 294°
2026-04-11 13:09 37.28715 -121.25213 34003 ft 498 kts 294°
2026-04-11 13:10 37.31078 -121.33407 34003 ft 498 kts 294°
2026-04-11 13:10 37.33439 -121.41618 34003 ft 498 kts 294°
2026-04-11 13:11 37.35781 -121.49789 34003 ft 498 kts 294°
2026-04-11 13:11 37.38122 -121.57984 34003 ft 498 kts 294°
2026-04-11 13:12 37.40458 -121.66183 34003 ft 498 kts 294°
2026-04-11 13:12 37.42797 -121.74422 34003 ft 498 kts 294°
2026-04-11 13:13 37.45131 -121.82665 34003 ft 498 kts 294°
2026-04-11 13:13 37.47443 -121.90859 34003 ft 498 kts 294°
2026-04-11 13:14 37.49750 -121.99065 34003 ft 498 kts 294°
2026-04-11 13:14 37.52063 -122.07321 34003 ft 498 kts 294°
2026-04-11 13:15 37.54416 -122.15529 34003 ft 497 kts 295°
2026-04-11 13:15 37.57012 -122.23561 34002 ft 484 kts 297°
2026-04-11 13:15 37.58308 -122.27350 33998 ft 453 kts 298°
2026-04-11 13:16 37.59373 -122.31023 33743 ft 442 kts 289°
2026-04-11 13:16 37.59600 -122.32713 33456 ft 443 kts 281°
2026-04-11 13:17 37.56500 -122.22133 4500 ft 292 kts 281°
2026-04-11 13:17 37.56577 -122.22681 4411 ft 289 kts 279°
2026-04-11 13:18 37.57240 -122.24992 3057 ft 272 kts 297°
2026-04-11 13:18 37.57905 -122.26768 1648 ft 253 kts 293°
2026-04-11 13:18 37.57988 -122.27013 1519 ft 249 kts 293°
2026-04-11 13:18 37.58574 -122.28861 829 ft 210 kts 292°
2026-04-11 13:19 37.59133 -122.30400 636 ft 178 kts 296°
2026-04-11 13:19 37.59285 -122.30772 562 ft 174 kts 297°
2026-04-11 13:19 37.59497 -122.31266 439 ft 171 kts 298°
2026-04-11 13:20 37.60007 -122.32524 359 ft 155 kts 297°
2026-04-11 13:20 37.60499 -122.33721 283 ft 154 kts 296°
2026-04-11 13:20 37.61012 -122.34922 110 ft 153 kts 298°
2026-04-11 13:20 37.61515 -122.36103 34 ft 151 kts 298°
2026-04-11 13:21 37.62008 -122.37289 29 ft 153 kts 298°
2026-04-11 13:21 37.62329 -122.38043 29 ft 150 kts 298°
2026-04-11 13:21 37.62516 -122.38480 29 ft 148 kts 297°
2026-04-11 13:21 37.62746 -122.39033 28 ft 136 kts 297°
2026-04-11 13:22 37.62750 -122.39033 28 ft 0 kts 296°
2026-04-11 13:22 37.62755 -122.39046 28 ft 4 kts 296°
2026-04-11 13:23 37.62776 -122.39103 28 ft 10 kts 294°
2026-04-11 13:23 37.62812 -122.39199 28 ft 12 kts 316°
2026-04-11 13:23 37.62866 -122.39225 28 ft 13 kts 345°
2026-04-11 13:23 37.62983 -122.39282 28 ft 14 kts 336°
2026-04-11 13:24 37.63046 -122.39299 28 ft 14 kts
2026-04-11 13:24 37.63178 -122.39323 28 ft 15 kts 339°
2026-04-11 13:24 37.63244 -122.39356 28 ft 16 kts 338°
2026-04-11 13:24 37.63351 -122.39390 28 ft 16 kts
2026-04-11 13:25 37.63421 -122.39369 28 ft 0 kts 25°